GFSWCAN_850_dewp_030.txt.gz
Dewpoint
-3 -4 -5 -4 -4 -4 -4 -4 -4 -5 -6 -6 -5 -4 -3 0 1 1 2 2 2 4 4 6 2 -0 2 4 6 6 6 6 4 5 5 4 2 4 4 4 4 3 3 3 4 3 3 -0 -3 -2 -2 -0 -2 -1
-4 -3 -3 -3 -4 -4 -5 -5 -5 -4 -4 -4 -4 -2 -1 1 1 1 1 1 3 2 5 5 5 2 -0 3 4 6 4 5 5 6 6 4 4 3 3 5 3 2 2 3 3 3 0 -3 -2 -1 -2 -1 1 1
-4 -5 -6 -5 -4 -3 -2 -3 -1 -1 -2 -4 -3 -1 0 1 1 -0 1 1 2 3 4 5 5 7 3 1 3 4 5 4 5 3 5 5 3 2 4 3 3 2 3 3 2 2 2 1 -1 -0 -0 1 3 3
-5 -5 -5 -6 -5 -2 -1 -1 -1 -1 -0 -1 -2 -0 0 0 -1 -0 0 -0 3 4 5 6 7 7 5 2 3 3 1 2 4 6 4 3 4 3 2 2 2 2 1 2 2 4 4 4 3 2 2 2 2 2
-5 -6 -6 -7 -6 -1 -2 -4 -2 -1 -0 0 -1 -2 -3 -3 -2 -0 1 1 4 5 5 5 7 8 6 5 3 2 2 2 4 2 2 2 3 4 1 1 2 1 1 2 2 2 2 3 2 2 2 1 1 1
-6 -6 -7 -7 -7 -3 -5 -7 -6 -4 -3 -2 -3 -3 -2 -1 -1 1 2 2 2 4 4 4 7 7 8 7 5 3 3 4 3 4 4 5 6 3 2 1 2 3 1 -1 4 3 2 2 1 1 1 1 1 1
-7 -8 -8 -5 -5 -6 -8 -7 -5 -5 -3 -3 -3 -2 -1 0 2 2 2 3 2 3 3 4 5 7 8 8 9 8 6 7 6 7 6 4 5 3 0 3 3 3 3 3 3 2 2 1 1 1 1 1 -0 -1
-5 -5 -5 -6 -7 -6 -4 -2 -3 -2 -2 -1 -0 -0 1 2 2 1 2 4 5 4 4 4 5 6 6 7 7 8 7 7 6 6 7 3 6 3 3 3 3 3 3 3 2 3 2 2 1 0 -0 -2 -3 -3
-3 -3 -3 -3 -3 -2 -2 -2 -2 -1 -1 -1 -0 1 2 4 3 2 1 5 4 5 5 3 5 6 6 6 6 7 6 4 5 3 4 3 3 3 3 2 2 2 2 2 2 2 1 1 0 -1 -2 -3 -4 -3
-1 -2 -2 -3 -3 -2 -2 -2 -1 -1 1 0 1 2 2 3 3 3 4 5 5 6 4 3 5 5 5 4 4 4 4 3 4 3 4 2 3 2 2 2 2 2 2 2 1 0 0 -1 -1 -3 -3 -3 -3 -3
3 2 1 1 1 1 -0 1 1 2 2 2 4 4 4 3 3 4 4 3 3 2 3 4 5 5 6 4 3 4 3 1 3 3 3 3 3 1 2 2 2 2 2 1 1 1 0 -0 -2 -2 -2 -3 -4 -8
4 3 3 2 2 1 1 1 2 2 3 5 4 4 3 4 3 2 2 2 2 3 2 3 4 5 5 4 3 3 3 1 3 3 2 5 2 2 2 2 2 1 1 1 1 -0 -1 -1 -2 -2 -3 -8 -12 -14
5 4 4 4 4 4 3 3 4 5 5 4 3 3 2 1 2 1 3 3 2 1 2 3 2 4 3 3 2 2 3 3 1 3 3 1 1 1 1 1 1 1 1 0 -0 -1 -1 -2 -5 -5 -11 -12 -13 -13
5 5 5 4 4 5 5 5 4 3 1 1 0 1 1 1 0 0 1 1 0 1 3 3 2 2 3 2 1 3 2 2 2 2 1 1 1 0 -0 0 0 -0 -0 -1 -1 -1 -3 -5 -9 -10 -11 -12 -13 -15
4 4 5 5 5 5 4 3 2 1 -0 -1 -1 0 -0 -1 -1 -1 -0 0 1 2 3 3 2 2 1 2 1 2 3 3 1 2 1 1 1 -0 -1 -1 -1 -2 -2 -2 -3 -6 -7 -5 -7 -8 -9 -12 -14 -14
4 3 3 4 4 4 3 1 1 -1 -2 -2 -2 -1 -1 -1 -1 -1 -0 -0 1 2 3 2 1 1 2 2 2 2 2 2 1 -1 -0 0 -0 -1 -1 -2 -2 -2 -4 -7 -8 -5 -7 -10 -10 -11 -12 -13 -13 -13
2 3 3 3 3 3 3 2 -1 -2 -2 -2 -2 -2 -1 -1 -1 -1 -1 -1 1 1 1 1 1 1 1 1 0 -0 -0 -1 -1 -1 -1 -0 -1 -1 -1 -2 -2 -4 -6 -3 -4 -7 -9 -10 -11 -11 -11 -11 -11 -11
1 1 2 2 2 2 2 -1 -2 -3 -2 -2 -2 -2 -2 -2 -2 -2 -1 -0 0 -0 -0 -0 -0 -1 -2 -1 -2 -3 -2 -2 -2 -1 -1 -1 -1 -1 -2 -2 -2 -2 -3 -7 -7 -7 -7 -9 -9 -10 -10 -10 -10 -11
-18 -14 -5 -5 -12 -5 -3 -2 -3 -2 -2 -2 -2 -2 -2 -3 -4 -3 -2 -1 -2 -2 -2 -3 -4 -3 -4 -5 -5 -5 -4 -2 -2 -2 -2 -2 -2 -2 -2 -2 -2 -3 -4 -5 -5 -6 -8 -8 -9 -10 -10 -10 -11 -12
-22 -26 -24 -17 -12 -6 -4 -3 -3 -2 -2 -2 -2 -2 -3 -4 -6 -8 -7 -7 -8 -6 -5 -5 -6 -7 -7 -7 -7 -6 -4 -3 -2 -2 -3 -2 -2 -2 -3 -3 -3 -4 -5 -6 -6 -7 -7 -9 -9 -10 -11 -13 -15 -18
-27 -21 -15 -14 -7 -4 -4 -4 -3 -3 -2 -4 -4 -4 -4 -5 -8 -8 -9 -9 -8 -6 -6 -7 -8 -8 -8 -7 -7 -6 -5 -3 -3 -3 -4 -4 -4 -3 -4 -5 -5 -6 -6 -7 -8 -9 -9 -9 -10 -10 -11 -12 -14 -20
-28 -30 -27 -16 -7 -6 -6 -5 -5 -5 -4 -4 -5 -5 -5 -4 -5 -9 -11 -8 -7 -7 -7 -8 -8 -9 -9 -9 -8 -7 -7 -6 -6 -6 -6 -7 -7 -7 -7 -8 -7 -8 -8 -9 -9 -10 -11 -11 -11 -12 -13 -15 -19 -19
-24 -21 -16 -13 -13 -9 -7 -6 -6 -5 -6 -5 -7 -6 -4 -4 -4 -9 -7 -8 -9 -9 -8 -9 -10 -9 -10 -10 -9 -9 -8 -8 -8 -8 -8 -8 -9 -9 -9 -9 -9 -10 -10 -11 -11 -11 -12 -13 -15 -20 -21 -21 -20 -21
-15 -9 -6 -5 -6 -6 -6 -6 -6 -7 -6 -8 -7 -6 -5 -4 -8 -9 -8 -9 -10 -9 -9 -9 -10 -10 -10 -11 -11 -11 -10 -10 -10 -10 -10 -10 -10 -11 -11 -11 -11 -12 -12 -14 -18 -22 -23 -24 -25 -25 -25 -25 -24 -21
-9 -7 -7 -10 -7 -8 -8 -7 -7 -7 -7 -9 -7 -6 -6 -5 -9 -10 -9 -10 -11 -11 -11 -10 -11 -11 -11 -11 -11 -11 -11 -11 -11 -11 -12 -12 -12 -12 -12 -14 -16 -18 -22 -25 -27 -28 -28 -28 -28 -27 -26 -24 -21 -19
-7 -6 -8 -7 -6 -6 -7 -6 -6 -5 -9 -8 -6 -7 -6 -11 -13 -11 -10 -12 -12 -12 -12 -12 -12 -12 -13 -13 -13 -12 -13 -13 -13 -14 -15 -15 -16 -16 -18 -20 -23 -24 -27 -28 -28 -28 -28 -27 -25 -23 -22 -20 -20 -19
-6 -7 -5 -5 -4 -6 -6 -6 -6 -9 -10 -8 -9 -9 -7 -12 -12 -11 -12 -12 -12 -12 -12 -12 -12 -13 -13 -13 -14 -15 -17 -18 -17 -16 -16 -16 -17 -18 -19 -24 -25 -25 -25 -25 -25 -25 -24 -22 -22 -22 -21 -21 -21 -20
-5 -5 -6 -8 -8 -7 -8 -8 -10 -9 -8 -7 -7 -12 -13 -14 -13 -12 -12 -12 -13 -13 -13 -14 -14 -14 -15 -17 -19 -16 -14 -15 -18 -17 -18 -18 -19 -19 -22 -25 -25 -24 -23 -23 -22 -22 -21 -20 -20 -20 -21 -21 -21 -21
-6 -7 -8 -9 -8 -8 -7 -8 -8 -8 -9 -8 -11 -13 -13 -15 -14 -14 -13 -13 -13 -13 -14 -14 -14 -15 -15 -16 -20 -22 -24 -21 -21 -20 -21 -24 -24 -24 -24 -24 -23 -23 -22 -21 -21 -20 -20 -21 -21 -21 -22 -22 -22 -22
-8 -7 -8 -8 -11 -10 -8 -9 -10 -10 -10 -12 -14 -15 -15 -16 -15 -15 -14 -14 -14 -15 -15 -15 -15 -15 -15 -17 -21 -20 -21 -22 -24 -24 -24 -24 -24 -24 -23 -23 -22 -22 -22 -21 -21 -21 -21 -21 -21 -22 -22 -22 -23 -23
-8 -8 -7 -8 -8 -9 -8 -9 -10 -11 -11 -12 -13 -16 -16 -16 -16 -16 -16 -16 -16 -15 -16 -16 -19 -21 -20 -20 -21 -21 -22 -22 -24 -24 -24 -24 -23 -23 -23 -23 -23 -22 -21 -21 -21 -21 -21 -21 -22 -22 -22 -23 -23 -23
-9 -9 -8 -11 -8 -9 -8 -8 -9 -10 -10 -12 -13 -14 -14 -16 -17 -17 -17 -17 -17 -16 -17 -18 -18 -17 -17 -18 -19 -21 -23 -23 -23 -23 -24 -24 -25 -24 -24 -23 -23 -23 -23 -22 -22 -22 -22 -22 -22 -23 -23 -23 -24 -24
-9 -11 -11 -9 -9 -8 -10 -10 -8 -11 -11 -12 -13 -14 -15 -16 -17 -18 -17 -17 -17 -17 -17 -17 -17 -18 -20 -19 -19 -19 -22 -24 -25 -26 -26 -26 -25 -25 -25 -24 -24 -23 -23 -23 -23 -23 -23 -23 -24 -24 -24 -24 -24 -24

GFSWCAN_850_dewp_036.txt.gz
Dewpoint
-1 -1 -1 -1 -1 -0 -1 0 1 -0 0 -0 -0 -1 -3 -2 -2 -3 -4 -3 0 1 1 3 2 1 1 1 2 2 4 4 3 4 4 3 2 3 3 3 4 5 5 3 1 1 4 -3 -2 -1 -2 -4 -3 -2
-0 -1 -1 -2 -0 1 1 0 -0 -0 -0 -1 -1 -1 -1 -2 -1 -1 -3 -5 -1 1 1 3 4 4 2 0 0 1 1 5 4 5 3 3 2 1 3 4 1 3 3 4 3 3 -0 -2 -2 -4 -5 -3 -2 -2
-1 -0 0 0 -0 -0 -0 -0 -0 -1 -1 -1 -1 -2 -4 -4 -4 -6 -6 -5 0 1 2 2 2 3 4 3 0 0 2 3 4 2 4 4 4 2 4 3 3 2 0 1 1 0 0 1 -1 -2 -3 -3 -2 -2
-2 -2 -1 -1 -1 -1 -1 -1 -1 -1 -1 -2 -3 -4 -4 -6 -5 -3 -3 -1 1 2 2 2 4 4 4 4 3 1 2 1 4 5 4 4 4 2 2 3 3 2 1 2 2 3 3 2 0 -1 -1 -1 -2 -1
-3 -3 -3 -3 -3 -2 -2 -3 -3 -4 -4 -5 -5 -6 -4 -4 -2 -2 -3 1 1 1 2 2 2 3 6 7 5 3 1 3 5 4 2 4 3 3 1 3 2 2 2 3 2 1 0 -1 -1 -1 -1 -0 0 0
-4 -3 -4 -4 -5 -6 -6 -6 -6 -6 -4 -2 -2 -2 -2 -2 -2 -1 -0 0 1 1 2 2 2 3 6 7 7 4 2 4 4 3 3 4 5 4 4 3 1 1 0 -1 -0 0 0 -1 0 1 1 2 2 2
-2 -3 -2 -2 -3 -4 -4 -4 -4 -4 -4 -5 -4 -4 -4 -3 -0 -1 -0 -0 1 1 2 2 1 4 6 7 8 7 6 5 5 5 4 4 5 2 1 3 0 1 1 0 0 1 1 1 1 1 1 1 1 1
-2 -2 -1 -1 -2 -2 -3 -3 -3 -5 -6 -6 -4 -3 -1 0 -0 -2 -3 1 -1 -0 -1 2 3 3 6 6 6 7 6 6 6 5 4 3 4 1 3 2 3 3 2 2 2 1 0 1 1 1 1 0 -0 -1
-4 -4 -5 -3 -1 -1 -1 -2 -2 -4 -5 -2 -0 -0 0 -0 -1 -2 -2 1 -0 -1 2 3 4 4 4 5 5 6 6 3 5 3 3 4 2 4 2 3 3 2 2 2 2 1 1 1 1 1 0 -0 -0 -2
-5 -6 -6 -5 -2 -0 -0 -0 -0 -1 -0 -1 -1 -2 -1 -3 -0 1 2 2 2 1 2 2 4 3 4 3 3 3 3 3 3 3 4 3 3 2 2 3 3 2 2 2 1 0 1 0 1 0 0 -0 -0 -1
-7 -8 -5 -4 -2 -1 -1 -1 -1 -1 -2 -1 -0 0 -0 -2 2 2 1 2 2 2 3 3 4 4 4 3 3 3 3 2 5 4 5 4 4 1 3 2 3 2 2 2 2 1 1 1 1 -0 -1 -2 -2 -3
-7 -8 -5 -2 -3 -3 -3 -1 -0 0 0 0 2 2 2 2 1 1 1 1 1 3 2 2 4 4 4 3 2 2 3 2 5 2 4 5 2 1 2 2 2 2 2 2 2 1 1 0 -0 -1 -2 -3 -3 -3
-6 -5 -5 -3 -1 -1 -1 -0 -0 -0 1 2 3 2 1 -0 2 2 3 3 3 0 2 2 2 3 4 3 1 2 4 4 1 4 4 2 1 1 1 2 1 1 1 1 1 0 -0 -1 -2 -1 -1 -2 -4 -4
-4 -5 -7 -4 -3 -2 -1 -0 -0 0 0 1 1 -0 0 0 -0 -0 -0 0 -0 -0 1 2 1 1 2 2 1 3 2 2 3 3 2 1 0 -0 1 1 1 0 0 0 -0 -1 -1 -0 -1 -2 -3 -4 -7 -11
-4 -6 -8 -6 -3 -2 -1 -0 -0 -0 -0 -1 -0 -0 -0 -1 -1 -1 -1 -0 -0 1 2 2 2 2 1 2 1 2 3 2 1 1 -0 -1 -0 -0 -0 0 -0 -0 0 0 0 -0 -1 -2 -3 -4 -4 -7 -7 -8
1 0 -1 -3 -2 -1 -1 0 -0 -2 -2 -2 -2 -2 -2 -1 -2 -2 -2 -1 0 1 1 1 1 2 1 -0 -2 -1 1 -1 -1 -2 -2 -1 -1 -1 -1 -1 -1 -1 -1 -2 -2 -2 -2 -3 -4 -5 -6 -8 -10 -12
-1 1 1 1 0 -0 0 0 -3 -3 -3 -3 -2 -5 -4 -3 -4 -4 -4 -3 -0 0 0 -0 -2 -2 -3 -2 -4 -4 -3 -3 -4 -3 -2 -2 -2 -2 -2 -2 -2 -2 -2 -3 -3 -3 -4 -5 -5 -5 -7 -12 -14 -15
2 2 2 2 1 0 -1 -2 -3 -3 -2 -3 -4 -5 -6 -6 -6 -6 -5 -3 -1 -1 -3 -3 -5 -6 -6 -6 -6 -6 -7 -7 -4 -4 -3 -3 -3 -3 -2 -3 -3 -3 -4 -4 -4 -4 -5 -5 -6 -8 -11 -12 -12 -12
1 1 1 1 1 0 -1 -2 -4 -3 -4 -5 -6 -5 -7 -7 -8 -8 -7 -5 -6 -6 -6 -7 -7 -7 -7 -8 -8 -8 -9 -8 -6 -6 -5 -4 -4 -4 -4 -4 -4 -4 -5 -5 -5 -6 -6 -7 -8 -9 -9 -10 -10 -10
-4 -3 -1 -0 -1 -1 -2 -2 -3 -3 -2 -5 -8 -9 -9 -9 -9 -10 -10 -10 -10 -9 -9 -9 -9 -10 -10 -10 -10 -10 -9 -6 -6 -6 -7 -6 -6 -5 -5 -5 -6 -6 -6 -7 -7 -8 -8 -9 -9 -9 -10 -10 -10 -10
-7 -5 -5 -4 -4 -4 -3 -2 -2 -3 -3 -4 -4 -8 -10 -11 -11 -11 -11 -12 -11 -9 -10 -10 -10 -11 -11 -10 -10 -10 -9 -7 -8 -9 -10 -9 -9 -8 -8 -8 -8 -8 -8 -9 -9 -10 -10 -10 -11 -11 -11 -11 -12 -12
-14 -12 -12 -9 -8 -7 -6 -5 -4 -4 -6 -6 -6 -4 -5 -7 -9 -11 -13 -12 -11 -11 -11 -11 -12 -12 -11 -11 -10 -10 -10 -9 -9 -9 -9 -8 -9 -9 -10 -10 -9 -10 -11 -11 -11 -11 -12 -12 -12 -12 -12 -13 -13 -14
-21 -18 -13 -11 -9 -8 -7 -7 -7 -6 -8 -7 -7 -7 -7 -8 -10 -14 -11 -12 -12 -12 -11 -12 -11 -11 -11 -11 -10 -10 -10 -10 -10 -10 -11 -11 -11 -11 -11 -11 -11 -12 -12 -13 -13 -13 -13 -14 -16 -19 -23 -24 -25 -25
-15 -10 -8 -8 -8 -9 -8 -7 -7 -6 -7 -9 -9 -9 -8 -8 -12 -12 -12 -13 -13 -12 -12 -12 -11 -11 -12 -12 -12 -12 -12 -12 -12 -12 -12 -12 -13 -14 -14 -16 -18 -19 -21 -24 -25 -27 -27 -28 -28 -28 -28 -28 -28 -26
-9 -7 -9 -11 -8 -10 -13 -13 -12 -10 -11 -12 -11 -8 -11 -11 -14 -14 -13 -13 -13 -13 -13 -13 -12 -13 -13 -14 -14 -13 -13 -13 -14 -15 -16 -18 -20 -21 -23 -24 -25 -25 -26 -26 -26 -26 -26 -26 -26 -25 -24 -23 -23 -22
-8 -6 -7 -8 -10 -10 -12 -11 -11 -11 -13 -11 -9 -9 -13 -16 -16 -14 -12 -13 -14 -14 -13 -13 -13 -14 -14 -15 -16 -16 -17 -17 -17 -18 -18 -19 -21 -23 -24 -25 -25 -25 -25 -25 -26 -26 -25 -25 -24 -24 -23 -22 -21 -21
-8 -10 -8 -8 -7 -8 -10 -9 -10 -12 -11 -9 -13 -16 -17 -17 -16 -13 -13 -14 -14 -14 -14 -14 -15 -16 -15 -14 -15 -15 -16 -17 -19 -19 -20 -21 -24 -24 -25 -25 -25 -25 -25 -25 -24 -24 -23 -22 -22 -22 -21 -21 -22 -22
-7 -9 -12 -9 -9 -9 -14 -15 -15 -13 -13 -10 -15 -18 -19 -19 -16 -15 -14 -14 -14 -14 -14 -15 -15 -17 -20 -18 -16 -16 -21 -22 -21 -23 -23 -24 -24 -25 -25 -26 -25 -25 -25 -26 -25 -24 -23 -22 -22 -22 -21 -22 -22 -22
-8 -9 -10 -12 -10 -10 -10 -12 -12 -11 -12 -13 -18 -18 -16 -17 -16 -15 -15 -14 -14 -15 -15 -15 -15 -16 -17 -19 -20 -21 -22 -23 -24 -24 -25 -26 -27 -28 -29 -28 -28 -28 -27 -27 -26 -25 -25 -24 -23 -22 -22 -22 -22 -22
-9 -9 -10 -10 -14 -13 -12 -12 -14 -15 -15 -16 -16 -17 -17 -17 -16 -16 -15 -15 -15 -16 -16 -17 -17 -18 -20 -20 -19 -19 -20 -22 -24 -27 -28 -29 -29 -28 -28 -27 -26 -26 -25 -25 -25 -24 -24 -24 -24 -24 -24 -24 -23 -23
-8 -10 -10 -9 -10 -11 -13 -14 -15 -16 -17 -17 -17 -18 -17 -18 -17 -17 -17 -17 -17 -17 -17 -17 -17 -17 -17 -17 -19 -21 -23 -25 -29 -29 -28 -27 -26 -26 -25 -25 -25 -24 -24 -24 -23 -23 -23 -23 -24 -24 -24 -24 -24 -24
-9 -10 -11 -14 -11 -12 -12 -10 -13 -13 -14 -16 -16 -17 -17 -17 -18 -18 -18 -18 -18 -17 -18 -17 -18 -18 -20 -23 -26 -28 -28 -27 -27 -26 -25 -25 -25 -24 -24 -24 -24 -24 -24 -23 -23 -24 -24 -24 -24 -24 -24 -24 -24 -24
-11 -11 -10 -10 -11 -11 -11 -11 -12 -13 -13 -14 -15 -15 -16 -17 -18 -18 -18 -18 -19 -22 -22 -22 -23 -25 -29 -29 -28 -27 -26 -26 -26 -26 -25 -25 -25 -24 -24 -24 -24 -24 -24 -24 -24 -24 -25 -24 -24 -24 -24 -24 -24 -24

GFSWCAN_850_dewp_039.txt.gz
Dewpoint
-0 -1 -0 -2 -2 -1 -1 -1 -0 -0 0 0 0 0 -0 -0 0 -1 -1 -2 0 1 0 2 2 2 -0 -0 1 1 2 2 3 4 5 4 5 5 5 4 5 5 5 6 3 6 6 -2 -3 1 1 -5 -4 -1
-0 -0 -1 -2 -2 -2 -1 -0 -1 -1 -0 0 0 -0 0 -0 0 -0 -1 -1 -2 -1 1 1 1 3 3 -0 -1 -0 -1 2 2 5 4 3 5 3 4 6 2 6 4 5 4 6 2 -3 -2 -4 -5 -6 -4 -2
0 0 -0 -0 -0 -1 -1 -1 0 0 1 0 -0 1 0 -0 -0 -1 -2 -3 -4 -3 -2 -1 -0 1 3 2 -1 0 0 -1 0 0 4 5 4 3 5 4 3 2 0 4 3 2 1 -2 -4 -3 -4 -5 -3 -2
-0 -0 0 0 0 0 -0 0 1 1 0 -0 -0 -0 -0 -0 -1 -1 -2 -3 -4 -2 -0 -0 3 2 3 3 2 -0 -0 -1 3 4 4 4 5 3 5 4 4 3 2 2 2 1 3 0 -1 -2 -2 -3 -3 -2
-1 -1 -0 -0 -0 0 1 0 0 -0 -0 -0 -0 -0 -1 -1 -1 -1 -3 -3 -4 -2 2 1 -1 -2 0 4 4 2 -0 3 3 4 3 5 3 3 2 3 3 2 2 4 4 -1 -1 -2 -3 -2 -2 -3 -2 -2
-4 -1 -1 -1 -1 -0 -0 -1 -0 -0 -0 -0 -1 -1 -1 -2 -2 -4 -3 -5 -2 -4 1 2 1 1 2 5 5 5 2 2 4 4 3 3 4 4 5 5 2 0 -0 -1 -0 -3 -2 -3 -2 -1 -2 -2 -1 -1
-4 -5 -5 -2 -2 -2 -1 -1 -1 -1 -1 -1 -2 -3 -5 -5 -4 -2 -1 -3 -2 1 1 1 2 3 4 6 7 7 5 5 4 4 4 4 5 4 3 5 0 -0 0 1 -0 -1 0 -1 -0 -0 -0 -0 1 1
-2 -3 -5 -6 -6 -5 -5 -5 -5 -5 -5 -5 -6 -6 -5 -3 -2 -0 1 -1 -2 1 1 1 2 3 5 5 6 6 7 6 5 4 4 4 4 2 4 1 0 0 1 1 0 0 -1 -1 -0 0 1 1 1 1
-1 -2 -2 -4 -4 -5 -4 -4 -4 -4 -4 -3 -3 -2 -1 -1 -0 -1 -1 1 1 0 0 1 2 5 4 4 5 5 5 5 4 4 4 4 4 6 3 2 2 2 2 1 2 2 1 0 0 1 1 1 1 0
-3 -1 -1 -2 -4 -5 -5 -5 -6 -5 -4 -2 -2 -1 -1 -1 -2 -2 0 0 1 2 1 2 3 4 4 2 2 3 3 4 6 4 3 4 5 2 2 2 3 3 2 2 1 1 1 0 0 -0 -1 -1 -0 -1
-4 -1 -1 -2 -2 -4 -5 -7 -6 -3 -1 -0 0 -0 -1 -0 -0 0 0 1 2 2 2 2 3 4 4 3 3 3 3 2 6 5 5 5 5 2 2 3 2 2 2 1 1 1 1 0 -0 -0 -1 -1 -1 -2
-3 -0 -1 -0 -1 -2 -3 -3 -1 -0 0 0 -0 -1 1 1 1 1 1 0 1 3 2 2 2 4 3 3 2 2 3 2 6 2 5 6 2 1 2 2 2 1 1 2 2 2 2 1 -0 0 -1 -1 -2 -2
-2 -1 -1 -1 -0 -1 -1 0 0 0 1 1 -0 1 1 -0 2 2 3 3 2 0 1 2 2 3 3 2 1 2 3 4 2 4 3 2 -0 -0 0 1 2 2 2 3 2 2 1 0 -0 -1 -1 -1 -2 -2
-3 -2 -2 -2 -1 -0 0 0 -1 0 -0 -0 -0 0 -0 -1 -1 -0 -0 0 -1 -0 0 2 1 1 2 1 1 3 2 1 3 3 2 -0 -1 -1 -0 -0 0 0 1 1 1 -1 -1 -2 -2 -2 -1 -2 -3 -3
-5 -2 -1 -1 -1 -0 -0 -0 -1 -1 -1 -1 -2 -0 -1 -1 -2 -2 -2 -1 -1 -0 1 1 1 1 1 2 1 2 3 1 0 -0 -1 -2 -2 -1 -1 -1 -1 -2 -2 -2 -2 -2 -2 -2 -2 -3 -3 -4 -4 -5
-4 -3 -3 -3 -2 -2 -1 -1 -0 -2 -2 -3 -6 -4 -4 -3 -4 -4 -5 -3 -1 0 1 0 1 1 0 -1 -2 -3 -1 -2 -3 -4 -3 -3 -3 -3 -3 -2 -2 -2 -2 -2 -3 -3 -3 -3 -4 -5 -6 -6 -5 -6
-0 0 -3 -3 -3 -2 -3 -0 -2 -3 -3 -3 -4 -6 -6 -6 -6 -6 -6 -5 -1 -1 -1 -2 -4 -4 -4 -4 -5 -6 -6 -6 -7 -6 -4 -4 -4 -4 -4 -4 -4 -3 -4 -4 -4 -4 -4 -5 -5 -6 -6 -8 -8 -8
0 0 -2 -1 -1 -1 -2 -3 -4 -4 -4 -5 -6 -7 -7 -8 -8 -7 -7 -5 -2 -3 -5 -5 -7 -7 -7 -7 -7 -8 -9 -9 -7 -8 -7 -5 -5 -4 -4 -4 -4 -4 -4 -5 -5 -6 -6 -6 -7 -8 -8 -9 -9 -10
0 0 -1 -0 -0 -1 -2 -2 -5 -6 -6 -7 -8 -8 -10 -10 -10 -10 -9 -9 -9 -8 -9 -10 -9 -9 -9 -10 -10 -10 -10 -9 -8 -10 -8 -7 -6 -6 -5 -5 -5 -6 -6 -6 -7 -7 -8 -8 -8 -9 -9 -9 -9 -10
-0 -0 -0 0 -0 -1 -3 -4 -5 -6 -6 -8 -9 -11 -11 -11 -11 -11 -12 -12 -12 -11 -10 -10 -10 -11 -11 -11 -11 -11 -11 -8 -8 -9 -10 -9 -8 -7 -7 -8 -8 -8 -8 -8 -9 -9 -9 -10 -10 -10 -10 -10 -11 -11
-0 -1 -1 -3 -4 -3 -3 -3 -3 -4 -4 -6 -7 -10 -11 -13 -13 -13 -13 -13 -13 -11 -11 -11 -12 -12 -12 -12 -11 -11 -10 -9 -10 -11 -11 -11 -10 -9 -9 -9 -9 -9 -10 -10 -10 -11 -11 -11 -12 -12 -12 -12 -12 -13
-2 -6 -7 -8 -7 -7 -6 -5 -4 -5 -7 -6 -5 -6 -7 -9 -11 -13 -14 -13 -12 -12 -12 -12 -12 -12 -12 -12 -11 -11 -11 -10 -10 -10 -10 -10 -10 -10 -11 -11 -10 -11 -12 -12 -12 -12 -12 -12 -13 -13 -14 -16 -18 -20
-13 -13 -11 -10 -9 -9 -8 -7 -7 -7 -9 -8 -7 -8 -10 -10 -12 -15 -12 -13 -13 -13 -13 -13 -13 -12 -12 -12 -11 -11 -11 -11 -12 -12 -12 -12 -12 -13 -13 -14 -14 -15 -16 -19 -21 -23 -25 -26 -27 -27 -27 -27 -27 -27
-14 -11 -9 -9 -9 -10 -8 -8 -8 -8 -8 -9 -9 -8 -9 -11 -13 -14 -13 -13 -14 -13 -13 -12 -12 -12 -12 -13 -13 -13 -13 -13 -14 -16 -18 -19 -20 -23 -24 -24 -25 -25 -25 -26 -26 -26 -26 -27 -27 -27 -26 -26 -25 -25
-10 -8 -9 -11 -9 -11 -13 -12 -11 -10 -10 -10 -10 -9 -12 -13 -14 -14 -13 -13 -14 -14 -14 -13 -14 -15 -16 -16 -16 -16 -16 -18 -18 -19 -21 -23 -24 -24 -24 -24 -24 -25 -25 -25 -26 -27 -26 -26 -26 -26 -25 -24 -23 -23
-9 -7 -8 -11 -10 -9 -11 -10 -11 -12 -12 -12 -11 -12 -15 -16 -16 -14 -13 -14 -14 -14 -14 -14 -14 -14 -15 -16 -16 -16 -17 -17 -19 -20 -22 -23 -24 -24 -25 -25 -25 -25 -28 -28 -28 -27 -26 -26 -25 -25 -24 -23 -22 -22
-9 -11 -9 -9 -8 -9 -11 -11 -11 -13 -12 -11 -14 -17 -18 -17 -16 -14 -14 -14 -14 -14 -15 -17 -17 -16 -15 -16 -17 -18 -18 -20 -21 -22 -23 -24 -24 -25 -27 -27 -27 -28 -28 -27 -27 -27 -27 -26 -25 -25 -24 -24 -23 -22
-9 -10 -13 -11 -11 -11 -15 -16 -16 -14 -14 -12 -16 -18 -19 -19 -16 -16 -15 -15 -14 -15 -15 -15 -17 -19 -17 -17 -19 -21 -22 -22 -22 -23 -23 -24 -27 -29 -29 -29 -28 -27 -27 -27 -26 -26 -25 -25 -25 -24 -24 -24 -24 -24
-9 -10 -12 -14 -12 -12 -13 -14 -14 -14 -14 -15 -19 -19 -17 -17 -17 -16 -15 -15 -15 -15 -15 -16 -16 -17 -19 -20 -20 -20 -20 -21 -23 -25 -28 -30 -30 -28 -28 -27 -27 -26 -25 -25 -25 -24 -24 -24 -24 -24 -24 -24 -24 -24
-11 -11 -11 -12 -16 -15 -15 -15 -15 -16 -16 -17 -17 -17 -17 -17 -17 -16 -16 -16 -16 -16 -17 -18 -19 -20 -20 -19 -18 -19 -21 -24 -28 -29 -29 -28 -27 -26 -26 -25 -25 -25 -25 -25 -24 -24 -24 -24 -24 -24 -24 -24 -24 -24
-10 -12 -11 -11 -13 -14 -16 -17 -17 -17 -17 -17 -18 -18 -18 -18 -18 -17 -17 -17 -17 -17 -17 -17 -17 -17 -17 -20 -22 -24 -28 -28 -27 -27 -26 -26 -26 -25 -25 -25 -25 -25 -25 -25 -25 -25 -25 -25 -25 -25 -25 -25 -25 -25
-11 -12 -12 -14 -13 -14 -13 -12 -14 -15 -15 -17 -17 -17 -17 -18 -18 -18 -18 -18 -18 -18 -17 -17 -18 -20 -22 -26 -29 -28 -27 -26 -26 -27 -27 -26 -26 -25 -25 -25 -25 -25 -24 -25 -25 -25 -25 -25 -25 -25 -25 -25 -25 -25
-11 -11 -12 -12 -13 -14 -13 -12 -13 -14 -14 -15 -16 -16 -16 -17 -18 -18 -18 -18 -19 -22 -24 -25 -26 -29 -29 -28 -27 -27 -27 -27 -27 -28 -27 -27 -26 -26 -26 -25 -25 -24 -24 -25 -25 -26 -26 -26 -26 -26 -26 -26 -26 -26

GFSWCAN_850_dewp_042.txt.gz
Dewpoint
0 -1 -2 -2 -1 -1 -1 -0 -0 -0 -0 -1 -2 -3 1 0 -0 -0 -0 -1 0 0 0 1 1 -0 -2 -2 1 -1 1 3 4 5 4 3 7 5 1 2 5 5 6 8 5 9 8 -2 -2 0 -0 0 -2 -1
0 -1 -2 -1 -1 0 -0 -1 -1 -0 -1 -2 -1 -2 0 -0 -0 -0 -0 -1 -1 -0 1 2 0 3 3 -3 -2 0 -2 -0 1 3 4 3 8 7 4 6 3 6 4 5 3 4 0 -2 -2 -2 0 -2 -1 -1
0 -1 -1 -2 -1 -1 -1 -0 -1 -1 -2 -1 -1 0 -0 -0 -0 -0 -0 0 -0 0 0 -0 0 0 2 1 1 -1 -1 -3 -0 0 4 6 8 6 9 5 3 3 2 6 4 -0 1 0 -1 -1 -1 -1 -1 -1
0 -0 -0 -1 -1 -0 -0 -1 -1 -1 -1 -0 1 0 -0 0 -0 -0 -0 -1 -2 -2 -1 -3 -0 1 1 3 3 2 1 -0 2 1 4 6 8 2 6 2 5 1 2 3 3 1 1 1 1 -1 -0 -1 -3 -1
0 0 -0 -0 -1 -1 -1 -0 -0 0 0 0 0 -0 0 -0 -1 -1 -2 -3 -3 -4 -0 -3 -2 -1 1 2 3 3 2 3 1 5 5 5 2 4 4 4 6 1 2 5 6 1 1 -1 0 1 0 -2 -3 -1
-0 0 0 0 0 0 0 0 1 1 1 0 -0 -0 -0 -1 -1 -1 -1 -2 -3 -2 -2 2 2 -1 -2 -0 3 4 3 2 2 2 4 3 4 4 8 5 -1 -1 1 1 0 -1 -1 -0 -2 -1 1 1 0 0
-1 -1 -0 0 0 1 1 1 0 -0 0 0 0 -0 -0 -0 -0 -1 -2 -2 -4 -3 -3 -0 1 2 1 2 4 5 3 2 2 3 4 3 5 4 7 7 -1 -0 0 0 -0 -1 0 -1 -0 -2 -2 1 -0 1
-3 -2 -1 -0 -0 -0 0 -0 0 0 -0 -0 -0 -0 -1 -2 -4 -3 1 -0 -5 -2 -3 1 2 3 4 5 5 5 5 5 4 3 4 4 5 5 6 2 2 1 1 2 1 0 0 -0 -1 0 -1 -1 -0 -0
-6 -6 -3 -1 -1 -1 -1 -1 -1 -1 -1 -2 -2 -2 -3 -3 -4 0 -1 -2 -4 1 1 1 3 5 4 4 5 5 5 6 5 6 5 5 6 6 3 3 2 3 3 3 1 1 0 0 0 -0 0 0 0 -0
-4 -5 -6 -5 -4 -3 -3 -3 -3 -4 -5 -5 -4 -3 -1 -1 -1 1 0 -0 1 1 1 2 1 2 2 3 5 4 3 4 6 6 5 7 6 3 3 3 3 3 2 2 2 1 1 1 0 -0 -0 -0 -0 -1
-3 -5 -5 -3 -3 -3 -3 -4 -5 -4 -4 -2 -1 -0 -0 -2 -0 1 0 1 1 2 1 2 2 1 2 5 5 4 4 2 6 6 7 7 6 2 2 3 2 2 2 2 2 1 1 1 0 -0 -0 -0 -1 -1
-2 -4 -5 -5 -6 -6 -4 -4 -3 -2 -3 0 0 -0 -1 1 1 1 1 1 2 2 3 3 2 1 2 4 4 4 5 4 6 3 7 6 2 0 1 1 1 2 1 1 1 1 1 0 -0 -1 -1 -1 -1 -1
-1 -3 -5 -6 -7 -6 -4 -2 -1 0 1 1 -1 1 1 1 2 2 3 3 3 1 1 2 3 3 3 3 3 3 5 6 2 4 2 0 -1 -1 -1 -1 -0 1 1 1 1 1 0 -1 -1 -1 -1 -2 -2 -3
-0 -2 -3 -3 -2 -1 -1 -0 0 1 -0 -0 0 0 1 0 0 0 -0 1 -0 -1 0 1 1 2 2 2 1 5 2 2 4 3 0 -2 -2 -2 -2 -2 -1 -2 -1 -1 -1 -1 -2 -2 -3 -3 -3 -3 -3 -4
-2 -1 -1 -1 -0 -0 -1 -1 -1 -1 -1 -2 -2 -1 -1 -2 -4 -4 -4 -2 -2 -1 -0 1 1 1 1 2 1 2 2 1 -1 -2 -3 -4 -3 -4 -4 -4 -4 -3 -3 -4 -4 -3 -4 -4 -4 -4 -4 -4 -4 -5
-2 -1 -1 -1 -1 -0 -0 -1 -1 -2 -3 -5 -7 -5 -6 -4 -5 -6 -6 -5 -4 -1 -0 -0 1 1 -1 -2 -2 -2 -2 -4 -4 -6 -6 -5 -5 -5 -5 -5 -5 -5 -5 -4 -4 -4 -4 -4 -4 -5 -5 -5 -6 -6
-5 -3 -2 -2 -3 -3 -1 -1 -3 -4 -4 -5 -6 -7 -7 -7 -7 -7 -6 -6 -4 -2 -1 -4 -4 -3 -4 -4 -5 -6 -6 -6 -7 -8 -8 -6 -6 -6 -6 -6 -6 -5 -5 -5 -5 -5 -6 -6 -6 -6 -7 -7 -7 -8
-0 -4 -3 -3 -2 -3 -2 -3 -5 -5 -6 -7 -6 -7 -8 -9 -8 -8 -7 -6 -3 -5 -7 -6 -9 -8 -6 -6 -7 -8 -8 -8 -9 -9 -9 -8 -7 -7 -7 -7 -7 -6 -6 -7 -7 -7 -7 -7 -7 -8 -8 -8 -8 -9
-1 -1 -1 -1 -1 -2 -2 -4 -6 -7 -7 -7 -9 -9 -9 -9 -10 -9 -10 -10 -9 -9 -9 -10 -9 -9 -9 -10 -10 -9 -9 -8 -9 -10 -10 -9 -9 -8 -8 -8 -7 -8 -8 -8 -8 -8 -9 -9 -10 -10 -10 -10 -10 -11
-1 -1 -1 -1 -2 -2 -2 -3 -7 -7 -8 -9 -9 -10 -11 -11 -10 -11 -11 -11 -11 -12 -12 -11 -10 -11 -11 -11 -11 -11 -11 -9 -9 -10 -11 -11 -10 -9 -9 -9 -9 -9 -9 -9 -10 -10 -10 -11 -11 -11 -11 -11 -11 -12
-1 -1 -1 -2 -3 -3 -3 -3 -3 -6 -6 -6 -6 -10 -11 -11 -11 -11 -12 -12 -12 -12 -11 -11 -11 -12 -12 -12 -12 -12 -11 -10 -12 -11 -12 -12 -12 -11 -11 -10 -10 -10 -11 -11 -11 -12 -12 -12 -12 -12 -12 -12 -13 -13
-2 -4 -6 -6 -6 -7 -7 -5 -4 -5 -5 -6 -6 -9 -9 -10 -11 -12 -13 -13 -13 -12 -12 -12 -12 -12 -12 -13 -13 -13 -12 -11 -11 -12 -12 -12 -12 -12 -12 -13 -13 -13 -14 -16 -18 -20 -22 -25 -26 -26 -27 -27 -27 -27
-11 -12 -11 -10 -10 -9 -8 -7 -6 -7 -6 -6 -7 -9 -10 -11 -12 -13 -13 -13 -13 -13 -12 -13 -13 -13 -14 -13 -12 -12 -13 -13 -14 -15 -16 -18 -20 -21 -23 -23 -24 -24 -25 -25 -26 -26 -26 -27 -27 -27 -27 -27 -26 -26
-13 -11 -10 -10 -9 -7 -9 -7 -7 -7 -7 -6 -7 -8 -9 -11 -12 -13 -13 -14 -13 -13 -13 -13 -13 -13 -13 -14 -14 -15 -16 -18 -20 -21 -19 -20 -22 -23 -24 -24 -25 -25 -25 -26 -26 -27 -28 -29 -29 -29 -29 -28 -27 -26
-10 -8 -8 -7 -8 -8 -6 -6 -7 -7 -6 -7 -8 -8 -10 -12 -12 -12 -13 -13 -13 -14 -14 -14 -14 -14 -14 -15 -15 -18 -19 -19 -20 -22 -22 -23 -22 -22 -23 -24 -25 -27 -28 -29 -29 -28 -29 -28 -27 -26 -24 -25 -25 -24
-7 -8 -7 -7 -7 -7 -7 -7 -7 -7 -8 -8 -9 -12 -12 -12 -13 -12 -14 -13 -14 -15 -15 -15 -14 -14 -15 -15 -15 -16 -19 -20 -21 -22 -23 -23 -24 -25 -26 -25 -22 -28 -29 -29 -28 -27 -27 -26 -26 -25 -23 -22 -24 -24
-7 -8 -9 -10 -8 -9 -9 -9 -10 -10 -9 -9 -10 -12 -13 -12 -13 -14 -14 -15 -15 -15 -16 -16 -15 -15 -16 -18 -19 -20 -21 -22 -22 -22 -23 -24 -27 -29 -30 -29 -27 -27 -27 -26 -26 -26 -25 -25 -25 -24 -24 -23 -24 -24
-9 -10 -10 -11 -11 -11 -11 -11 -11 -10 -11 -12 -14 -14 -14 -14 -14 -15 -15 -15 -15 -15 -16 -17 -17 -17 -17 -19 -20 -21 -20 -21 -21 -23 -26 -28 -29 -28 -27 -27 -26 -26 -25 -25 -25 -25 -24 -24 -24 -24 -24 -24 -24 -24
-10 -12 -12 -14 -13 -13 -13 -12 -12 -13 -14 -14 -14 -15 -16 -17 -18 -17 -16 -15 -15 -15 -16 -16 -17 -19 -20 -20 -20 -19 -20 -22 -26 -28 -29 -27 -25 -25 -26 -25 -25 -25 -25 -25 -24 -25 -25 -25 -25 -25 -25 -25 -25 -25
-11 -12 -12 -14 -14 -13 -15 -16 -16 -16 -16 -16 -16 -17 -18 -18 -17 -16 -16 -16 -16 -16 -17 -17 -18 -20 -19 -18 -18 -20 -23 -28 -29 -28 -27 -26 -26 -26 -25 -25 -25 -25 -25 -25 -25 -25 -25 -25 -26 -26 -26 -26 -26 -25
-12 -11 -12 -13 -14 -15 -16 -17 -17 -17 -18 -17 -17 -17 -17 -18 -17 -17 -16 -16 -17 -17 -17 -17 -18 -17 -17 -20 -23 -26 -28 -27 -27 -27 -27 -27 -26 -26 -26 -25 -25 -25 -25 -25 -25 -26 -26 -26 -26 -26 -26 -26 -26 -26
-13 -12 -12 -13 -14 -15 -14 -13 -14 -14 -16 -15 -16 -18 -18 -17 -17 -17 -17 -17 -17 -17 -18 -18 -18 -19 -23 -27 -28 -28 -27 -27 -28 -28 -28 -28 -27 -26 -26 -26 -26 -25 -25 -25 -25 -26 -26 -27 -27 -26 -26 -26 -26 -26
-13 -13 -12 -13 -13 -14 -14 -13 -14 -14 -15 -15 -16 -17 -17 -16 -17 -18 -18 -18 -18 -19 -21 -25 -27 -29 -29 -28 -28 -28 -28 -28 -28 -28 -28 -28 -28 -27 -26 -26 -26 -25 -25 -25 -25 -26 -26 -26 -26 -26 -26 -26 -26 -26

GFSWCAN_850_dewp_045.txt.gz
Dewpoint
0 -0 -1 -1 -2 -2 -1 -0 -0 -0 -0 -1 -1 -0 -0 -1 -1 0 0 -0 0 -1 -1 -1 -1 -0 -4 -4 0 -3 -1 1 4 5 4 1 2 -2 -3 -7 2 6 6 8 7 8 8 -2 -2 -0 -1 -3 -2 -2
0 -2 -2 -1 -1 1 -1 1 1 1 1 0 0 -0 -0 -2 0 0 1 0 -0 0 2 3 3 3 1 -4 -4 -2 0 1 -1 2 2 -1 5 8 -1 4 -6 5 4 6 3 4 1 -1 -2 -2 -4 -4 -1 -2
-0 -1 -1 -1 -1 -1 -0 0 0 0 -0 -0 -0 -0 -1 -2 0 0 1 1 -0 1 2 0 -0 1 0 1 3 0 -1 -3 -3 -3 -1 2 4 6 7 5 -2 -3 1 5 3 1 0 1 -0 -1 -1 -1 -1 -1
-1 -1 -1 -1 -1 -1 -0 0 -0 0 -0 -0 0 -2 -2 -1 -0 0 1 0 0 1 2 -1 -1 -0 1 -0 2 4 4 -2 -3 -2 2 4 5 -4 5 2 3 -0 2 3 2 -1 -1 -2 0 1 -0 -0 -1 -1
-1 -1 -1 -0 -1 -1 -1 -0 -0 -1 -1 -2 -3 -2 -1 -0 -0 0 0 -0 0 -1 -1 -3 -3 0 3 -2 1 4 4 3 0 3 6 5 -0 -1 1 3 4 -3 1 5 4 -2 1 2 0 -0 1 0 1 0
0 0 0 -0 -0 -1 -2 -1 -1 -2 -2 -2 -0 1 -0 -0 0 -0 -0 0 0 0 -2 2 -0 -3 -1 1 2 3 3 3 1 -1 4 -0 -3 -2 5 4 -3 -6 -2 -1 -0 0 1 0 1 0 -0 0 0 1
0 1 1 0 0 -0 -0 0 0 0 1 1 0 -0 -0 -0 -0 -0 0 -1 -0 -1 -3 -2 -0 -0 -1 -0 2 2 3 2 3 1 2 2 -0 3 6 6 -3 -6 -7 -8 -3 -1 2 0 0 -0 0 1 1 1
-0 0 1 1 1 1 1 1 1 0 -0 -0 -0 -1 -0 -0 -0 -0 -2 -1 -1 -3 -3 -2 0 2 2 2 2 3 3 3 2 2 1 3 2 3 5 -0 -2 -2 -1 1 2 3 3 2 1 1 1 2 2 1
-0 0 0 0 0 0 0 -0 -0 -0 -0 -1 -1 -0 -0 -0 -0 0 -1 -2 -1 -3 -3 -0 1 3 2 3 3 4 3 4 1 4 4 2 5 6 3 -1 -1 3 3 3 3 3 2 2 1 1 1 0 1 1
-1 -1 -0 0 -0 -0 -0 0 0 -0 -0 -0 -1 -2 -1 -0 -0 -2 0 0 -1 -1 1 2 -0 2 0 3 3 4 5 5 5 5 2 4 4 2 2 3 3 3 3 3 3 3 2 2 2 1 1 1 1 0
-3 -1 -1 -1 -1 -0 -1 -2 -3 -4 -2 -1 -0 0 -1 -0 0 1 0 0 0 2 -0 0 1 1 2 3 4 4 4 4 6 6 7 6 5 0 -1 2 3 3 3 2 2 2 2 2 2 1 1 1 1 0
-3 -3 -3 -4 -3 -3 -4 -5 -3 -0 -0 0 0 -0 -0 1 0 1 0 1 1 1 2 2 2 1 2 2 4 4 4 4 6 4 7 3 -1 -2 -2 -1 -1 0 1 1 1 1 1 1 1 1 0 -0 -0 -0
-5 -5 -3 -3 -3 -4 -4 -1 -1 0 0 0 -1 0 0 1 2 1 2 4 3 1 1 3 3 2 2 2 4 4 6 5 1 3 1 -0 -3 -3 -3 -3 -2 -2 -1 -1 -1 -1 -1 -1 -1 -1 -2 -2 -3 -3
-7 -7 -6 -5 -3 -3 -4 -1 -0 -0 1 -0 1 1 2 2 0 -1 -1 0 -1 -1 -1 1 1 2 2 3 1 5 2 3 4 3 0 -3 -3 -3 -4 -4 -4 -5 -4 -4 -4 -4 -4 -4 -5 -5 -5 -5 -4 -5
-7 -4 -2 -2 -0 -0 -1 -0 -0 -1 -3 -3 -4 -2 -2 -3 -4 -4 -3 -2 -2 -2 -1 1 1 1 1 2 1 4 3 0 -1 -2 -4 -5 -4 -5 -5 -5 -5 -6 -6 -6 -6 -6 -6 -6 -6 -6 -6 -5 -5 -5
-4 -1 -1 -0 -1 -2 -2 -2 -3 -5 -3 -5 -7 -6 -7 -4 -5 -6 -5 -4 -4 -3 -1 -0 1 1 -1 -2 -2 -2 -2 -3 -4 -5 -6 -5 -5 -6 -6 -6 -6 -6 -7 -7 -7 -7 -7 -6 -6 -6 -6 -6 -6 -6
-1 -1 -1 -2 -3 -3 -2 -2 -5 -5 -5 -5 -6 -7 -7 -7 -7 -7 -6 -5 -4 -3 -0 -1 -3 -2 -2 -3 -5 -6 -6 -6 -7 -8 -7 -8 -8 -7 -7 -7 -7 -7 -7 -7 -7 -7 -7 -7 -7 -7 -8 -8 -8 -8
-4 -2 -2 -2 -3 -3 -5 -5 -5 -5 -6 -7 -6 -7 -7 -8 -7 -7 -6 -6 -3 -4 -4 -5 -6 -6 -4 -4 -6 -7 -7 -8 -9 -9 -9 -9 -9 -9 -9 -9 -8 -8 -8 -8 -9 -9 -9 -9 -9 -10 -10 -10 -10 -10
-4 -3 -2 -2 -3 -3 -3 -4 -6 -6 -7 -6 -7 -7 -7 -8 -8 -7 -7 -8 -8 -8 -9 -10 -9 -8 -8 -9 -8 -8 -7 -8 -9 -9 -10 -10 -10 -10 -10 -10 -9 -10 -10 -10 -10 -10 -11 -11 -10 -11 -11 -11 -11 -11
-2 -1 -1 -1 -1 -3 -2 -3 -6 -8 -7 -7 -7 -8 -8 -9 -9 -10 -10 -10 -11 -11 -11 -10 -10 -10 -10 -10 -10 -9 -9 -8 -9 -10 -10 -11 -11 -11 -11 -11 -11 -11 -11 -11 -11 -12 -12 -12 -12 -13 -13 -12 -13 -13
-1 -1 -1 -4 -4 -4 -3 -3 -5 -6 -6 -5 -5 -8 -8 -9 -10 -10 -11 -12 -11 -11 -10 -10 -11 -11 -11 -11 -11 -11 -11 -10 -10 -10 -11 -11 -12 -12 -12 -12 -12 -12 -13 -13 -13 -14 -14 -14 -14 -14 -15 -15 -18 -16
-1 -1 -2 -5 -6 -6 -5 -4 -5 -5 -7 -7 -8 -9 -8 -9 -10 -11 -13 -12 -11 -11 -11 -11 -11 -11 -11 -12 -11 -12 -12 -12 -12 -12 -12 -12 -12 -13 -13 -13 -14 -15 -15 -15 -16 -17 -18 -24 -17 -17 -17 -16 -16 -18
-9 -11 -11 -10 -8 -7 -7 -6 -5 -7 -6 -7 -8 -9 -9 -9 -11 -12 -12 -12 -12 -11 -11 -11 -12 -12 -12 -13 -13 -13 -13 -13 -13 -13 -14 -14 -14 -14 -15 -15 -15 -15 -15 -16 -16 -16 -18 -20 -19 -18 -17 -18 -17 -17
-13 -12 -10 -6 -6 -5 -5 -5 -7 -7 -7 -7 -8 -8 -9 -10 -11 -12 -12 -13 -12 -12 -11 -11 -11 -12 -13 -13 -14 -14 -14 -14 -14 -13 -14 -15 -15 -16 -16 -16 -17 -17 -17 -17 -17 -18 -18 -18 -18 -18 -19 -19 -19 -19
-9 -7 -6 -5 -6 -6 -6 -6 -6 -7 -6 -7 -8 -8 -9 -10 -10 -11 -11 -12 -12 -12 -12 -12 -12 -12 -12 -13 -14 -14 -15 -15 -15 -16 -15 -14 -14 -15 -16 -17 -18 -20 -19 -18 -18 -18 -19 -19 -20 -20 -20 -20 -21 -21
-7 -7 -7 -7 -6 -6 -6 -6 -6 -6 -7 -8 -8 -10 -10 -10 -11 -11 -12 -12 -12 -13 -13 -12 -12 -13 -13 -14 -14 -15 -15 -15 -16 -16 -19 -20 -19 -17 -17 -17 -17 -19 -21 -21 -20 -20 -20 -20 -20 -21 -21 -20 -21 -21
-7 -7 -9 -8 -8 -8 -7 -8 -8 -8 -8 -8 -8 -10 -10 -10 -11 -13 -13 -13 -13 -15 -15 -14 -13 -13 -14 -15 -16 -18 -21 -20 -20 -21 -23 -28 -30 -29 -26 -21 -21 -25 -23 -26 -22 -21 -21 -21 -21 -21 -21 -22 -22 -22
-9 -9 -9 -9 -10 -10 -9 -9 -9 -9 -10 -11 -11 -11 -11 -12 -12 -13 -14 -15 -15 -16 -16 -16 -16 -16 -16 -16 -17 -17 -18 -19 -22 -26 -20 -19 -23 -26 -27 -26 -27 -27 -27 -26 -26 -24 -22 -22 -22 -22 -22 -22 -23 -23
-9 -10 -13 -12 -12 -12 -12 -11 -11 -13 -13 -11 -12 -13 -15 -15 -14 -15 -15 -16 -16 -16 -16 -16 -17 -19 -19 -19 -18 -18 -20 -22 -18 -22 -19 -18 -18 -20 -24 -24 -23 -25 -25 -23 -23 -26 -26 -26 -26 -26 -26 -24 -23 -23
-9 -9 -12 -13 -13 -12 -13 -13 -14 -14 -14 -14 -15 -16 -16 -16 -17 -16 -16 -16 -15 -16 -16 -17 -17 -17 -17 -17 -18 -21 -26 -29 -28 -24 -19 -19 -20 -25 -24 -22 -23 -24 -25 -25 -25 -25 -26 -26 -24 -23 -23 -23 -23 -26
-9 -10 -12 -13 -13 -13 -14 -14 -14 -14 -14 -14 -14 -14 -15 -16 -17 -17 -17 -16 -17 -17 -17 -17 -18 -17 -17 -18 -18 -18 -19 -27 -28 -28 -28 -28 -27 -24 -23 -26 -25 -26 -25 -25 -25 -26 -26 -26 -23 -23 -23 -25 -26 -26
-10 -11 -12 -12 -13 -13 -13 -12 -12 -13 -13 -13 -14 -15 -15 -14 -15 -17 -17 -17 -17 -17 -17 -17 -18 -18 -22 -27 -28 -28 -28 -28 -28 -28 -28 -28 -27 -27 -27 -26 -26 -26 -26 -25 -25 -25 -26 -26 -26 -25 -25 -25 -26 -26
-11 -11 -12 -12 -12 -12 -12 -12 -13 -13 -13 -13 -14 -14 -14 -14 -15 -16 -17 -17 -17 -17 -17 -19 -24 -28 -29 -28 -28 -28 -28 -29 -29 -29 -28 -28 -28 -28 -27 -27 -26 -26 -26 -26 -25 -25 -25 -25 -26 -26 -26 -26 -26 -26

GFSWCAN_850_dewp_048.txt.gz
Dewpoint
-1 -0 0 -1 -2 -1 -1 -1 -1 -1 -0 0 -0 0 -0 -2 -1 0 -0 0 2 2 -1 -1 1 2 -1 -3 -0 -4 -2 0 3 6 5 4 4 0 -3 -4 6 8 8 8 8 8 8 -1 -2 0 0 -3 -3 -3
0 -0 -1 -1 -1 -1 0 -0 -1 -1 1 -0 -0 0 -0 -0 -1 0 -1 1 1 2 2 2 1 1 2 1 -3 -4 -2 -2 1 5 3 3 7 6 -0 1 -3 6 4 7 5 5 3 -1 -0 -3 -3 -2 -2 -1
-1 -1 -1 -1 -0 0 0 1 -0 1 0 0 -0 -0 -0 -0 -0 0 -1 1 2 2 1 1 2 2 1 1 -1 -0 -3 -2 2 -0 2 4 5 3 7 4 -0 -3 2 5 4 2 3 1 0 -1 -1 -1 -0 -0
-1 -1 -0 -1 -1 -0 0 0 1 1 0 -0 0 -0 -0 0 0 -1 -2 1 0 1 2 1 -1 1 1 0 0 1 1 1 -0 0 2 5 5 -2 4 2 3 -0 -2 2 3 1 -1 -3 -0 2 1 1 0 -0
-0 -1 -1 -1 -0 0 0 0 1 1 0 -1 -1 -0 0 0 -1 0 1 1 1 -1 1 2 1 -1 1 -1 1 2 3 4 4 4 6 5 3 2 2 2 3 -2 -1 2 6 0 1 2 1 1 -1 -2 -2 0
0 0 -1 -2 -1 -0 -0 -0 0 0 -0 -0 0 -0 0 -1 0 1 0 1 1 0 1 2 -1 0 2 -2 -2 -1 1 4 5 4 5 1 -1 1 7 4 -2 -4 -3 -4 -0 -1 -0 -0 0 0 0 -1 -0 0
1 0 -0 -1 -1 -2 -1 -0 0 0 0 -0 -0 -0 -0 0 0 1 0 1 0 -2 0 -2 -1 -2 -1 1 2 3 1 2 5 4 5 2 1 -0 4 5 -4 -5 -5 -5 -6 -5 -2 -4 1 1 1 -0 1 1
1 1 0 -0 -0 -1 -1 -1 -1 -1 -1 -1 -0 -0 0 0 -0 -2 -1 -1 -1 -0 -2 -1 -0 1 -1 0 2 3 3 2 4 4 4 4 2 3 4 -1 -2 -2 -3 -2 3 3 3 3 3 2 1 1 2 2
0 0 1 0 0 1 0 -1 0 -0 -0 -0 -0 -0 0 0 -0 -1 0 -0 -0 -0 -1 -2 1 3 2 2 1 3 2 4 2 5 5 3 5 5 3 3 4 4 4 4 3 3 3 3 2 2 1 1 1 1
0 0 0 0 0 0 -0 -0 -0 -0 -0 -0 -0 -1 -0 0 -2 -2 -1 1 1 1 0 1 -3 3 1 1 3 4 3 5 4 4 2 5 4 -0 -1 -1 1 1 3 3 3 3 3 3 3 2 1 1 1 1
-0 -0 -0 -0 0 -0 -0 -0 -0 -0 0 0 1 0 0 -0 -1 1 -0 -1 -2 -0 -3 -2 -0 2 1 2 2 3 4 3 6 4 5 5 2 -2 -2 -2 -1 -0 1 2 2 2 2 2 2 2 1 1 1 1
-1 -0 -0 -0 -1 -1 -1 -1 -0 1 -1 0 -1 -0 -0 -0 1 1 1 1 1 -0 1 2 2 1 2 1 1 2 3 3 6 4 5 1 -2 -2 -3 -3 -4 -2 -2 -1 0 0 1 1 1 1 1 1 0 0
-4 -2 -2 -2 -2 -1 -1 0 0 0 -0 -1 1 1 1 1 1 1 0 2 3 -0 -0 2 3 2 2 1 0 2 3 4 1 3 0 -2 -4 -3 -4 -4 -5 -4 -4 -3 -3 -2 -2 -2 -2 -2 -2 -3 -3 -2
-3 -5 -6 -6 -5 -2 -1 -0 -1 -1 1 0 1 -0 1 -1 -2 -2 -2 -1 -2 -2 -2 -0 1 1 0 1 1 4 2 2 3 1 -2 -4 -4 -4 -5 -6 -6 -6 -6 -6 -6 -6 -6 -6 -6 -6 -6 -5 -5 -6
-4 -2 -1 -1 -2 -2 -2 -1 -1 -4 -4 -4 -5 -3 -3 -4 -4 -4 -3 -2 -3 -3 -2 0 0 0 0 2 1 3 2 -1 -2 -3 -5 -5 -5 -5 -6 -6 -6 -7 -7 -7 -7 -7 -7 -7 -7 -7 -7 -7 -7 -7
-1 -2 -2 -2 -2 -2 -3 -3 -4 -4 -4 -6 -8 -6 -7 -5 -6 -6 -5 -4 -3 -3 -1 -0 1 -0 -1 -2 -3 -2 -3 -4 -5 -5 -6 -7 -7 -7 -7 -7 -7 -7 -7 -8 -8 -7 -7 -7 -7 -8 -7 -8 -8 -8
-1 -2 -3 -4 -3 -3 -3 -4 -7 -6 -5 -5 -6 -7 -6 -7 -6 -5 -5 -5 -4 -3 -1 -2 -3 -2 -3 -5 -6 -6 -6 -6 -7 -7 -8 -8 -8 -8 -8 -8 -8 -8 -8 -8 -8 -8 -8 -8 -8 -8 -9 -9 -9 -9
-1 -2 -3 -3 -2 -3 -7 -6 -6 -6 -7 -6 -6 -6 -6 -7 -6 -5 -5 -5 -3 -4 -4 -4 -6 -7 -6 -6 -6 -6 -8 -9 -10 -10 -9 -9 -9 -10 -9 -9 -9 -9 -9 -9 -9 -9 -10 -10 -10 -10 -10 -10 -11 -11
-2 -2 -3 -3 -3 -3 -3 -5 -6 -7 -6 -6 -7 -7 -7 -7 -8 -6 -6 -7 -7 -6 -6 -7 -7 -7 -8 -8 -7 -7 -8 -9 -9 -10 -10 -10 -10 -10 -10 -10 -10 -11 -11 -11 -11 -11 -11 -11 -11 -11 -11 -11 -11 -11
-1 -2 -1 -1 -2 -2 -3 -5 -7 -6 -7 -6 -6 -7 -8 -8 -8 -9 -9 -8 -9 -9 -10 -10 -9 -9 -9 -9 -9 -8 -8 -9 -9 -10 -10 -11 -11 -11 -11 -11 -11 -12 -12 -12 -13 -13 -13 -13 -13 -13 -13 -13 -13 -13
-1 -2 -4 -5 -5 -3 -2 -4 -5 -5 -4 -5 -5 -7 -7 -9 -10 -10 -11 -12 -10 -11 -10 -10 -10 -10 -10 -10 -10 -10 -10 -10 -10 -10 -10 -11 -12 -12 -12 -13 -13 -13 -13 -14 -15 -16 -15 -15 -15 -14 -15 -16 -17 -15
-1 -2 -6 -7 -5 -5 -4 -5 -5 -6 -6 -7 -8 -8 -8 -8 -9 -11 -12 -11 -11 -10 -10 -10 -10 -11 -11 -11 -11 -11 -11 -12 -12 -12 -12 -12 -12 -13 -13 -13 -14 -14 -14 -15 -15 -16 -16 -18 -16 -16 -16 -16 -16 -17
-7 -10 -10 -7 -7 -6 -5 -5 -5 -7 -6 -7 -8 -8 -8 -9 -11 -12 -12 -11 -10 -10 -11 -11 -11 -11 -12 -12 -12 -12 -11 -12 -12 -12 -13 -13 -13 -14 -14 -14 -14 -15 -15 -15 -16 -16 -17 -17 -17 -17 -17 -18 -17 -18
-14 -12 -8 -4 -5 -4 -5 -5 -7 -7 -7 -8 -8 -8 -9 -9 -11 -12 -11 -11 -11 -11 -10 -10 -10 -11 -12 -13 -13 -13 -13 -13 -13 -13 -13 -14 -14 -15 -16 -17 -17 -17 -16 -16 -17 -17 -18 -18 -18 -18 -19 -20 -20 -19
-8 -7 -5 -4 -5 -5 -5 -6 -6 -7 -7 -8 -8 -8 -8 -10 -10 -10 -11 -11 -11 -11 -11 -11 -11 -11 -12 -13 -13 -14 -14 -14 -14 -15 -15 -14 -13 -14 -15 -16 -19 -19 -18 -18 -18 -18 -19 -19 -19 -19 -19 -20 -21 -20
-7 -7 -6 -6 -6 -6 -6 -6 -6 -7 -8 -8 -8 -9 -8 -10 -10 -10 -11 -11 -11 -12 -12 -11 -11 -12 -13 -13 -14 -14 -15 -14 -15 -17 -19 -23 -19 -16 -16 -16 -17 -19 -20 -20 -20 -19 -19 -20 -20 -20 -20 -20 -21 -21
-7 -7 -8 -7 -7 -7 -7 -7 -8 -8 -7 -7 -8 -9 -9 -10 -10 -12 -12 -12 -13 -14 -13 -13 -12 -13 -14 -15 -15 -16 -19 -19 -20 -20 -21 -24 -26 -23 -22 -21 -22 -25 -20 -23 -20 -21 -20 -20 -21 -21 -21 -21 -21 -22
-9 -8 -8 -8 -9 -9 -9 -9 -9 -9 -9 -10 -10 -10 -10 -11 -11 -12 -13 -14 -14 -14 -15 -14 -14 -14 -15 -15 -16 -16 -16 -16 -18 -18 -17 -17 -19 -22 -23 -22 -23 -25 -23 -24 -25 -26 -23 -22 -21 -21 -22 -23 -22 -22
-9 -10 -12 -11 -12 -13 -12 -11 -11 -13 -12 -9 -11 -12 -14 -13 -13 -14 -14 -14 -15 -15 -15 -16 -16 -17 -17 -17 -17 -18 -23 -27 -18 -20 -18 -17 -17 -19 -22 -23 -21 -23 -24 -21 -21 -23 -26 -27 -27 -27 -26 -24 -22 -22
-9 -9 -12 -13 -12 -13 -13 -12 -13 -12 -13 -14 -15 -15 -15 -15 -15 -15 -15 -15 -15 -15 -15 -16 -16 -15 -16 -16 -17 -20 -28 -29 -28 -24 -18 -18 -19 -23 -21 -21 -22 -23 -24 -22 -23 -24 -22 -25 -24 -21 -22 -22 -23 -23
-9 -11 -13 -13 -13 -13 -13 -13 -13 -13 -13 -13 -13 -14 -15 -16 -16 -16 -16 -16 -16 -16 -16 -16 -16 -16 -17 -17 -17 -17 -18 -23 -29 -29 -29 -28 -27 -21 -21 -25 -23 -24 -25 -23 -24 -23 -22 -25 -23 -22 -22 -23 -23 -23
-10 -11 -13 -13 -13 -12 -12 -10 -11 -11 -11 -13 -13 -14 -13 -13 -14 -16 -17 -16 -16 -16 -16 -16 -16 -17 -19 -26 -29 -28 -28 -28 -28 -29 -29 -29 -28 -27 -28 -27 -26 -23 -24 -25 -25 -23 -23 -23 -23 -23 -23 -23 -23 -24
-10 -11 -11 -12 -11 -11 -11 -11 -12 -12 -12 -13 -13 -13 -13 -12 -13 -16 -17 -16 -16 -16 -17 -17 -18 -24 -29 -29 -28 -28 -29 -29 -29 -29 -29 -28 -28 -28 -28 -28 -27 -27 -27 -27 -26 -25 -23 -23 -23 -23 -24 -24 -24 -24

GFSWCAN_850_dewp_054.txt.gz
Dewpoint
-3 -3 -1 -0 -0 -0 -0 -0 -0 -0 -0 -0 -0 -1 -2 -3 -2 -1 -0 -0 0 -0 -0 -0 -1 -1 -1 -2 -1 -2 -1 -1 0 0 1 0 0 2 2 3 4 5 7 7 6 7 7 2 2 1 2 2 -0 -0
-1 -1 -0 -0 -0 -0 -0 -0 -1 -1 -1 -1 -1 -0 -1 -1 -2 -1 -1 -1 -0 0 -0 1 1 1 -2 -5 -2 -2 -1 -2 -1 1 1 1 1 -0 0 2 2 3 3 5 6 6 2 2 2 2 0 2 2 2
0 0 -0 0 -0 -1 -1 -1 -1 -1 -0 -1 -1 -1 1 -1 -0 -1 -1 -1 -1 -0 -0 -0 -0 1 1 -0 -2 -1 -0 -1 0 -1 2 2 1 0 1 1 1 1 0 5 4 3 3 1 1 -3 -2 -2 -2 1
0 -0 -1 -1 -1 -1 -0 -0 -0 0 0 -1 -1 -1 -1 0 -1 -1 -1 -0 -0 -1 -0 0 -2 -1 2 -0 -0 -1 -1 0 -0 1 1 1 2 2 1 1 1 0 4 4 3 2 0 -1 -3 -5 -5 -3 -3 -1
0 -1 -1 -0 -0 0 0 0 -1 0 -0 0 0 -1 -1 -0 -0 -1 -1 -1 -1 -4 -0 1 1 3 1 -0 -1 -0 0 0 -0 2 2 1 2 1 0 2 3 1 3 4 3 1 1 -1 -5 -4 -4 -4 -2 -1
0 -0 -1 -0 0 0 0 -1 -1 -0 0 0 -0 -0 -1 1 -1 -1 -0 -0 -1 -2 1 2 1 -0 0 -1 -2 -2 -0 0 0 1 3 3 3 3 3 2 1 2 3 3 3 2 1 2 3 1 -0 -0 -0 0
-1 -1 0 -1 0 1 -0 -0 0 0 0 -0 -0 -1 0 -1 -1 -1 -0 -2 -2 -0 0 1 1 1 1 2 2 -1 1 2 1 1 3 3 3 2 2 3 1 1 1 3 3 3 3 3 3 2 2 2 1 1
-2 -1 0 -1 -1 -0 0 -0 -0 0 -0 0 0 -0 -0 -1 -1 -0 -0 -3 -2 -0 1 -0 1 1 1 2 2 1 0 1 2 1 3 2 2 3 3 -1 -1 0 1 2 2 2 3 3 2 2 2 1 1 1
-1 -2 0 0 -0 0 -0 -0 -0 -0 -0 0 0 0 -0 -0 -0 0 -1 -1 -0 1 -1 -2 0 2 2 2 1 2 2 1 2 1 0 1 1 -1 -2 -2 -2 -2 -1 -0 2 2 2 2 1 1 1 1 1 1
-1 -2 0 -1 0 -0 -0 -0 -0 -0 -0 -0 -0 -0 -1 0 1 0 0 0 0 -1 -0 -2 0 2 1 1 2 1 2 -1 3 1 2 -1 -2 -2 -4 -3 -4 -4 -2 -1 1 1 1 1 0 0 0 0 0 -1
-0 -1 -1 -1 -1 -0 -0 0 0 -1 -1 -1 -0 -0 0 0 -1 -1 -0 -1 -1 -1 -1 -1 -1 -0 1 -1 0 1 1 2 3 2 1 -1 -3 -4 -5 -5 -5 -4 -4 -3 -2 -2 -1 -1 -1 -2 -1 -1 -1 -1
-0 -0 -0 -0 -1 -2 -2 -2 -1 -2 -1 -1 -0 0 -0 0 -0 -2 -2 -2 -2 1 0 -2 1 -0 1 0 -1 1 2 1 3 0 -2 -4 -4 -5 -6 -6 -6 -6 -5 -4 -4 -4 -4 -4 -3 -3 -4 -4 -4 -4
-1 -1 -1 -1 -0 0 -1 -2 -0 -2 -2 -1 -1 -0 -3 -4 -5 -4 -1 -1 -1 -1 -2 -1 1 1 1 0 -1 0 2 3 -0 -2 -4 -5 -6 -6 -7 -7 -7 -7 -7 -6 -6 -6 -6 -6 -6 -6 -7 -7 -6 -6
-2 -1 -1 -1 -0 -0 -0 0 0 -1 -2 -4 -5 -6 -6 -6 -5 -5 -6 -6 -3 -3 -3 -2 -0 0 -0 -2 -0 1 -1 -3 -3 -6 -6 -6 -6 -7 -7 -8 -8 -8 -8 -9 -9 -8 -8 -8 -8 -8 -8 -7 -7 -7
-1 -2 -2 -2 -2 -3 -3 -3 -2 -3 -9 -8 -8 -6 -7 -6 -7 -5 -5 -4 -4 -4 -3 -1 -0 -1 -2 -2 -3 -2 -5 -5 -6 -7 -8 -8 -8 -8 -8 -9 -9 -9 -9 -9 -9 -9 -10 -9 -9 -9 -9 -9 -9 -9
-3 -3 -3 -4 -3 -3 -5 -6 -6 -9 -9 -9 -8 -9 -8 -9 -8 -7 -6 -5 -4 -3 -2 -2 -1 -2 -4 -5 -6 -6 -7 -7 -7 -8 -8 -9 -9 -9 -9 -9 -9 -10 -10 -10 -10 -10 -9 -9 -9 -10 -9 -9 -9 -10
-2 -1 -1 -5 -6 -4 -5 -7 -11 -9 -8 -7 -8 -8 -8 -7 -7 -7 -6 -7 -4 -3 -4 -5 -6 -5 -6 -6 -7 -8 -8 -8 -9 -10 -10 -10 -10 -10 -10 -10 -10 -10 -10 -10 -10 -10 -11 -10 -10 -10 -11 -11 -11 -11
-2 -1 -1 -2 -4 -9 -11 -10 -10 -9 -7 -7 -8 -8 -8 -9 -9 -8 -7 -6 -5 -5 -7 -6 -9 -7 -7 -6 -8 -9 -10 -10 -10 -10 -11 -11 -10 -10 -10 -10 -10 -10 -10 -10 -10 -10 -11 -11 -11 -12 -12 -12 -12 -12
-1 -2 -2 -3 -6 -7 -8 -9 -10 -7 -7 -8 -9 -9 -9 -9 -9 -8 -8 -8 -9 -9 -9 -9 -9 -9 -9 -9 -10 -10 -10 -11 -11 -11 -11 -11 -11 -11 -11 -11 -10 -11 -11 -11 -11 -12 -12 -12 -12 -12 -13 -13 -14 -14
-1 -2 -2 -3 -4 -6 -6 -6 -8 -7 -6 -8 -9 -10 -10 -10 -10 -10 -10 -10 -10 -11 -10 -10 -10 -10 -10 -9 -11 -10 -11 -11 -11 -12 -12 -12 -12 -11 -12 -12 -12 -12 -12 -12 -14 -15 -15 -15 -15 -15 -15 -15 -15 -15
-4 -5 -6 -6 -6 -4 -4 -5 -5 -7 -7 -6 -9 -9 -11 -13 -12 -12 -13 -14 -13 -11 -10 -11 -11 -11 -10 -10 -10 -11 -11 -11 -12 -12 -13 -13 -13 -13 -14 -15 -18 -19 -19 -18 -19 -18 -18 -17 -18 -19 -19 -18 -17 -18
-8 -9 -10 -8 -6 -6 -6 -7 -6 -7 -8 -8 -8 -9 -9 -10 -12 -13 -14 -13 -12 -12 -12 -11 -11 -11 -10 -10 -11 -11 -11 -12 -12 -13 -13 -13 -15 -16 -16 -17 -19 -20 -20 -20 -20 -20 -18 -17 -17 -17 -19 -18 -19 -20
-12 -11 -10 -10 -8 -8 -7 -6 -6 -5 -8 -7 -9 -9 -10 -11 -13 -14 -11 -11 -11 -12 -12 -12 -12 -12 -12 -12 -12 -12 -13 -13 -14 -15 -15 -15 -15 -16 -17 -18 -18 -19 -19 -18 -18 -19 -20 -20 -21 -19 -18 -19 -20 -21
-11 -8 -6 -6 -7 -7 -6 -7 -7 -8 -9 -9 -9 -10 -9 -12 -14 -13 -11 -11 -12 -12 -12 -12 -13 -13 -13 -13 -13 -13 -14 -15 -15 -15 -17 -19 -20 -19 -21 -20 -19 -20 -19 -20 -21 -21 -22 -23 -24 -25 -25 -23 -23 -22
-11 -8 -6 -9 -6 -9 -10 -11 -11 -10 -10 -11 -11 -10 -11 -12 -13 -14 -13 -11 -11 -11 -13 -14 -14 -14 -14 -14 -14 -14 -14 -14 -14 -15 -15 -15 -17 -17 -19 -20 -23 -21 -19 -20 -22 -22 -23 -23 -24 -25 -25 -26 -26 -24
-9 -7 -8 -9 -8 -9 -9 -10 -11 -11 -12 -10 -10 -9 -12 -16 -15 -12 -12 -12 -12 -12 -12 -13 -14 -14 -14 -15 -15 -16 -16 -18 -20 -20 -17 -16 -16 -18 -19 -19 -20 -25 -24 -22 -21 -23 -24 -24 -24 -25 -25 -25 -25 -25
-10 -8 -8 -9 -7 -8 -10 -10 -10 -12 -11 -11 -11 -14 -17 -17 -16 -13 -13 -12 -13 -12 -12 -13 -14 -15 -16 -17 -15 -15 -19 -23 -24 -23 -22 -24 -25 -26 -25 -26 -27 -27 -26 -26 -25 -25 -25 -25 -25 -24 -25 -26 -25 -25
-9 -12 -13 -12 -13 -11 -14 -15 -15 -14 -14 -11 -14 -17 -17 -17 -15 -13 -14 -13 -13 -13 -13 -14 -15 -16 -17 -17 -18 -18 -18 -20 -21 -21 -20 -20 -21 -23 -28 -27 -27 -27 -26 -25 -25 -25 -26 -27 -27 -26 -26 -25 -24 -24
-11 -13 -15 -15 -14 -13 -12 -15 -14 -13 -13 -12 -18 -18 -14 -14 -14 -14 -14 -14 -14 -14 -14 -14 -15 -15 -16 -17 -18 -23 -24 -18 -18 -20 -18 -18 -19 -20 -25 -25 -25 -25 -25 -24 -25 -24 -24 -24 -25 -25 -23 -23 -23 -22
-11 -14 -14 -14 -16 -14 -13 -14 -15 -15 -14 -15 -15 -15 -15 -14 -15 -15 -15 -15 -15 -16 -16 -16 -16 -16 -16 -17 -19 -24 -28 -27 -23 -22 -20 -20 -22 -27 -26 -26 -27 -26 -27 -27 -25 -25 -25 -24 -24 -24 -23 -23 -23 -23
-13 -15 -14 -14 -14 -13 -14 -15 -15 -16 -16 -16 -16 -16 -16 -15 -15 -15 -14 -15 -15 -15 -16 -16 -16 -16 -16 -17 -21 -25 -26 -26 -30 -30 -30 -29 -29 -28 -28 -28 -28 -28 -27 -27 -27 -27 -27 -26 -25 -25 -25 -24 -24 -24
-13 -14 -14 -14 -13 -13 -12 -13 -14 -14 -15 -15 -16 -16 -16 -16 -16 -16 -16 -15 -16 -16 -17 -17 -17 -17 -18 -21 -28 -29 -29 -29 -29 -29 -29 -29 -29 -28 -28 -28 -28 -28 -28 -28 -28 -27 -27 -27 -27 -26 -26 -26 -26 -26
-13 -14 -14 -13 -13 -13 -12 -11 -11 -12 -13 -13 -13 -13 -14 -15 -16 -16 -16 -16 -17 -16 -16 -16 -17 -18 -25 -29 -29 -29 -29 -29 -29 -29 -28 -28 -28 -28 -28 -28 -28 -28 -28 -27 -27 -27 -27 -27 -27 -27 -27 -27 -27 -27

GFSWCAN_850_dewp_060.txt.gz
Dewpoint
-2 -2 -3 -3 -1 -1 -1 -2 -4 -3 -3 -4 -4 -3 -1 -1 -0 -1 -1 -1 -0 -0 1 0 -0 0 0 -1 -0 -1 -0 -1 -1 -0 1 1 0 -0 -1 0 4 4 5 4 5 6 4 1 3 5 3 3 3 3
-3 -3 -1 -1 -0 -0 -0 -1 -0 -2 -1 -0 -2 -3 -2 -1 -1 -1 -1 -0 -0 -0 0 1 1 -0 -1 -2 -2 -1 -1 -1 -1 -1 -1 -1 -1 -2 1 2 1 1 1 3 3 3 1 2 1 -3 -0 2 1 2
-1 -1 -0 -1 -0 -0 -2 -1 -1 -0 -1 -0 -0 -1 -3 -3 -1 -1 -1 -0 -0 -1 -0 -0 1 1 -0 -1 -3 -2 -2 -3 -2 -3 -1 -1 -1 -2 -1 -0 -1 -1 0 1 1 -1 0 -0 -0 1 1 -0 -1 -2
-0 -0 -1 -1 -1 -1 -1 -1 -1 -0 -0 -0 -1 -1 -1 -2 -2 -1 -1 -1 -1 -0 0 0 -1 0 0 -1 -2 -3 -3 -2 -2 -1 -0 -0 0 -1 -1 -2 -1 -2 0 1 1 2 2 2 2 3 3 3 2 -0
-1 -2 -1 -1 -0 -1 -0 -0 -0 -1 -0 -0 -0 -0 -0 -1 -1 -1 -1 -1 -1 -1 -0 -1 0 -0 0 0 -1 -1 -1 -2 1 1 -0 1 -0 1 -0 0 1 2 3 2 2 3 3 3 3 3 2 2 3 3
-1 -1 -1 -1 -0 -1 -1 -1 -0 0 -1 -1 -1 -1 -0 -0 -1 -1 -1 -1 -1 -1 0 -0 -1 -0 -0 1 1 1 0 1 2 0 1 1 1 0 3 1 1 1 1 1 2 2 2 2 3 2 2 1 1 0
-1 -0 -0 -1 0 0 -0 0 0 0 -1 -1 -1 -0 -0 -0 -0 -1 -1 -2 -2 -0 0 0 1 1 -1 -1 0 2 2 2 3 1 2 1 2 1 2 3 -1 -1 -1 -1 1 1 2 2 1 1 2 2 0 -2
-0 -0 -1 -1 0 -0 -0 0 0 -1 -0 -1 -0 -0 -0 -0 -1 -0 -2 -2 -2 0 -1 0 1 2 2 2 1 1 2 2 2 2 2 1 2 2 3 -3 -2 -3 -3 -1 0 0 0 1 0 1 1 -0 -1 -0
-0 -1 -1 -0 -0 -0 0 0 -0 -0 -0 -0 -0 -0 -1 -1 -0 -0 -3 -1 -1 -2 -2 -1 1 2 2 1 2 2 2 1 1 1 0 1 1 0 -4 -5 -4 -4 -4 -3 -3 -1 -0 -0 -2 -2 -1 -2 -2 -2
-0 -0 -0 -0 -1 -1 -1 0 -1 -1 -1 -0 -1 -1 -1 -0 -1 -1 -0 -1 -0 -1 0 0 -0 1 1 1 0 1 0 -0 0 -0 -2 -3 -4 -5 -6 -6 -6 -6 -5 -5 -4 -2 -3 -3 -4 -5 -4 -4 -6 -5
-2 -1 -0 -0 -1 -0 -0 -0 -1 -1 -1 -1 -0 -0 -0 -0 -0 -0 -1 -1 -1 -0 -0 -0 0 1 0 -1 1 -0 0 1 1 0 -1 -2 -4 -6 -7 -7 -7 -7 -6 -6 -5 -5 -5 -5 -6 -6 -7 -6 -7 -7
-1 -1 -0 -0 -0 -0 -1 -1 -0 -1 -0 -0 -0 -0 -1 -1 -2 -2 -1 -1 -0 1 -1 0 -0 0 0 -0 -1 0 0 1 1 -3 -3 -5 -6 -7 -7 -8 -8 -8 -8 -8 -7 -7 -8 -8 -8 -8 -9 -9 -9 -8
-1 -1 -1 -0 0 0 -0 -1 -0 -1 -2 -2 -3 -6 -7 -7 -6 -4 -3 -3 -3 -3 -3 -0 0 -0 -1 -1 -1 0 1 -1 -4 -5 -6 -7 -7 -8 -8 -9 -9 -9 -9 -9 -10 -9 -9 -9 -9 -9 -10 -10 -9 -9
-0 -1 -1 -2 -1 -0 -1 -0 -1 0 -6 -9 -9 -9 -10 -10 -8 -7 -8 -8 -5 -4 -3 -1 -0 -1 -2 -2 -2 -2 -5 -7 -8 -7 -7 -8 -9 -9 -9 -10 -10 -10 -10 -11 -11 -11 -11 -10 -10 -10 -10 -10 -10 -10
-3 -2 -2 -3 -5 -5 -5 -6 -8 -9 -11 -9 -10 -9 -9 -8 -8 -7 -7 -6 -6 -4 -2 -2 -5 -5 -7 -8 -7 -6 -8 -7 -8 -9 -9 -10 -10 -10 -10 -10 -11 -11 -11 -11 -11 -10 -10 -10 -10 -10 -10 -10 -10 -10
-2 -4 -5 -4 -4 -5 -5 -7 -9 -12 -10 -11 -10 -10 -10 -11 -10 -9 -8 -7 -6 -4 -3 -4 -6 -7 -8 -8 -9 -8 -8 -9 -10 -10 -10 -10 -10 -10 -10 -10 -11 -11 -11 -11 -11 -11 -11 -10 -11 -11 -11 -11 -11 -11
-3 -2 -5 -10 -9 -6 -5 -10 -13 -10 -9 -9 -9 -10 -10 -10 -10 -9 -9 -8 -5 -6 -6 -6 -7 -5 -7 -9 -10 -10 -11 -12 -11 -11 -11 -11 -11 -11 -11 -11 -10 -10 -11 -11 -11 -11 -11 -11 -11 -11 -12 -12 -12 -12
-2 -2 -5 -6 -6 -11 -13 -13 -11 -11 -10 -10 -11 -10 -10 -10 -10 -9 -9 -7 -6 -7 -7 -7 -8 -9 -9 -9 -10 -11 -11 -11 -11 -11 -11 -11 -11 -11 -10 -11 -11 -11 -11 -11 -11 -11 -11 -11 -12 -13 -13 -13 -14 -14
-3 -3 -4 -6 -9 -11 -10 -11 -13 -10 -10 -10 -11 -11 -11 -10 -10 -9 -8 -8 -8 -9 -9 -9 -10 -9 -10 -10 -11 -11 -12 -12 -12 -12 -12 -12 -12 -11 -11 -11 -11 -11 -11 -11 -11 -12 -13 -13 -14 -14 -15 -16 -17 -17
-4 -3 -6 -8 -10 -9 -7 -8 -12 -10 -9 -10 -11 -10 -11 -11 -10 -11 -10 -10 -10 -11 -11 -11 -11 -11 -11 -11 -11 -11 -12 -12 -12 -13 -13 -13 -12 -12 -12 -12 -12 -12 -12 -13 -13 -14 -14 -15 -16 -17 -17 -18 -19 -20
-6 -6 -7 -8 -6 -6 -6 -9 -8 -10 -9 -10 -11 -11 -10 -11 -12 -12 -13 -14 -13 -12 -12 -12 -12 -11 -11 -11 -11 -11 -12 -11 -12 -12 -13 -13 -13 -12 -13 -13 -15 -17 -18 -18 -19 -20 -22 -22 -20 -20 -21 -22 -22 -22
-8 -9 -9 -9 -9 -8 -9 -8 -8 -8 -8 -9 -8 -11 -12 -12 -13 -14 -15 -13 -13 -12 -12 -12 -11 -11 -11 -11 -11 -11 -12 -11 -12 -12 -13 -13 -14 -17 -19 -20 -22 -23 -24 -23 -23 -23 -22 -20 -19 -20 -22 -24 -24 -26
-12 -12 -11 -9 -8 -7 -5 -5 -5 -6 -8 -8 -9 -12 -14 -14 -14 -14 -12 -12 -13 -13 -12 -12 -12 -12 -12 -12 -12 -12 -12 -12 -13 -14 -16 -18 -20 -21 -22 -22 -21 -22 -23 -23 -22 -22 -24 -23 -21 -20 -20 -21 -22 -24
-10 -8 -7 -7 -7 -8 -7 -8 -9 -10 -9 -10 -10 -11 -13 -13 -15 -14 -13 -13 -13 -13 -12 -13 -12 -13 -13 -13 -15 -16 -16 -17 -18 -20 -20 -20 -21 -22 -22 -22 -23 -23 -23 -23 -23 -24 -25 -25 -25 -24 -24 -23 -24 -23
-10 -8 -8 -11 -8 -10 -11 -13 -12 -11 -11 -12 -12 -12 -14 -14 -15 -15 -14 -12 -12 -12 -13 -13 -13 -14 -14 -14 -14 -15 -15 -15 -16 -17 -18 -18 -19 -21 -21 -22 -23 -24 -23 -22 -22 -23 -24 -25 -24 -24 -24 -25 -26 -26
-9 -9 -10 -11 -10 -10 -11 -12 -13 -12 -13 -13 -13 -14 -15 -17 -16 -15 -13 -13 -13 -14 -14 -14 -15 -15 -15 -16 -16 -16 -17 -18 -18 -18 -19 -19 -19 -19 -18 -19 -20 -24 -24 -24 -23 -23 -23 -23 -24 -24 -25 -26 -27 -26
-12 -12 -11 -11 -10 -11 -13 -12 -12 -14 -15 -13 -15 -19 -19 -19 -18 -15 -13 -13 -13 -13 -13 -14 -14 -15 -15 -15 -16 -17 -21 -23 -24 -24 -23 -23 -25 -27 -27 -25 -25 -26 -25 -25 -25 -25 -26 -26 -27 -27 -27 -27 -26 -25
-13 -14 -14 -14 -14 -14 -19 -19 -19 -17 -15 -13 -17 -20 -20 -20 -16 -14 -13 -12 -13 -13 -14 -15 -16 -17 -17 -17 -18 -18 -21 -22 -22 -22 -22 -21 -22 -25 -28 -27 -27 -27 -26 -25 -24 -23 -23 -24 -25 -25 -25 -25 -24 -24
-15 -15 -16 -19 -16 -16 -16 -19 -17 -15 -15 -15 -21 -20 -15 -15 -15 -14 -13 -13 -13 -14 -14 -15 -16 -16 -17 -17 -20 -25 -27 -24 -21 -21 -21 -21 -20 -22 -27 -27 -28 -28 -27 -27 -26 -25 -25 -25 -25 -25 -26 -25 -25 -25
-14 -15 -15 -17 -19 -18 -16 -16 -16 -15 -15 -16 -16 -16 -15 -15 -15 -15 -14 -15 -15 -15 -15 -15 -16 -17 -17 -18 -23 -26 -26 -26 -27 -29 -30 -29 -28 -29 -28 -28 -29 -28 -28 -27 -27 -27 -27 -27 -27 -27 -26 -25 -25 -25
-15 -15 -15 -16 -17 -16 -16 -16 -16 -16 -16 -16 -16 -16 -16 -16 -16 -15 -15 -16 -16 -16 -16 -16 -16 -16 -17 -18 -20 -26 -27 -27 -29 -29 -30 -30 -30 -29 -29 -29 -28 -28 -28 -28 -28 -28 -28 -27 -27 -27 -27 -27 -27 -27
-15 -15 -16 -17 -15 -15 -14 -15 -16 -16 -16 -16 -16 -16 -16 -16 -16 -16 -16 -16 -16 -16 -16 -17 -17 -17 -18 -21 -28 -29 -29 -29 -29 -29 -29 -28 -28 -28 -28 -28 -28 -28 -28 -28 -28 -28 -28 -28 -28 -28 -28 -28 -29 -30
-15 -15 -15 -14 -14 -14 -14 -13 -14 -14 -14 -14 -14 -15 -16 -16 -17 -16 -16 -16 -16 -16 -16 -16 -17 -21 -29 -29 -28 -29 -29 -29 -29 -29 -28 -28 -28 -27 -28 -28 -28 -28 -28 -28 -28 -28 -28 -28 -28 -29 -31 -32 -32 -31

GFSWCAN_850_dewp_063.txt.gz
Dewpoint
-2 -2 -2 -2 -2 -2 -1 -1 -1 -2 -3 -3 -1 -1 -1 -1 -1 -1 -1 -1 -1 -1 -0 -1 -2 -1 -1 -1 1 -0 1 1 1 2 2 1 1 0 -0 -1 3 4 4 5 5 6 5 -0 2 3 1 1 2 2
-3 -2 -2 -2 -1 -1 -0 -0 -1 -1 -0 -2 -3 -3 -1 -1 -1 -1 -1 -1 -1 -0 -0 -0 -1 -1 -2 -3 -2 -1 -1 -1 -1 0 0 0 1 -0 0 0 1 1 3 4 4 4 1 2 2 2 3 3 3 3
-2 -1 -1 -0 -0 -0 -1 -1 -1 -0 -1 -0 -2 -1 -3 -2 -1 -1 -1 -1 -1 -1 -1 -0 1 -0 -0 -1 -2 -0 -1 -2 -2 -3 -1 0 0 -1 2 1 -1 -1 -0 2 1 -1 1 1 2 3 2 3 3 2
-1 -2 -2 -1 -1 -2 -1 -1 -1 -2 -1 -1 -1 -1 -1 -2 -1 -1 -1 -1 -1 -1 0 0 -2 -0 -0 0 0 -0 -1 -1 -2 -2 -0 0 1 -2 0 -1 -0 -2 0 1 1 0 2 3 3 3 3 2 2 2
-1 -1 -1 -1 -1 -1 -1 -1 -1 -1 -2 -1 -0 -1 -0 -1 -2 -1 -1 -1 -1 -1 -0 -0 0 -1 -2 -0 -1 -1 -0 1 -0 1 1 2 0 2 0 1 1 2 2 3 2 2 2 2 3 2 2 1 1 1
-0 -1 -0 -1 -1 -0 -1 -1 -1 -1 -1 -1 -0 -0 -0 -1 -1 -2 -2 -1 -1 -1 -0 1 -0 -0 -1 -0 0 0 1 0 -0 -1 2 1 0 0 3 2 1 1 0 -0 1 1 1 2 3 2 1 1 1 -0
-1 -2 -1 -1 -0 -1 -0 0 -1 -0 -1 -1 -0 -0 -1 -1 -1 -1 -2 -3 -2 -1 -0 1 1 1 0 1 1 1 1 1 1 2 1 0 1 2 2 2 -1 -1 -2 -1 -1 0 2 1 0 1 0 -0 -1 -0
-1 -1 -2 -0 -0 -0 -0 -0 -0 -1 -0 -0 -0 -0 -0 -1 -1 -1 -1 -2 -2 -1 -0 1 1 1 1 1 1 1 2 2 2 2 1 2 2 2 2 -3 -3 -4 -4 -2 -3 -2 -2 -0 -0 -0 -1 -1 -2 -2
-1 -1 -0 0 -0 -0 -0 -0 0 -0 -1 -0 0 -0 -1 -1 -1 -1 -1 -1 -1 -1 -1 -1 1 1 0 0 1 1 1 2 1 1 1 2 2 2 -4 -5 -5 -5 -5 -4 -4 -3 -2 -2 -2 -2 -3 -4 -5 -6
-1 -1 -1 -0 -0 -1 -0 -0 -0 -0 -0 -1 -1 -1 -1 -1 -1 -1 -1 -1 -0 -0 0 -1 -0 2 1 1 0 1 1 1 2 2 -1 -1 -4 -6 -6 -6 -7 -6 -6 -6 -5 -4 -5 -5 -5 -6 -6 -7 -8 -8
-1 -1 -1 -1 -1 -1 -1 -1 -0 -0 -0 -0 -1 -1 -1 -1 -0 -1 -1 -2 -2 -1 -1 -0 -0 1 -0 1 1 0 1 1 2 0 1 -2 -5 -7 -7 -8 -8 -8 -8 -8 -7 -7 -7 -7 -7 -8 -8 -9 -10 -10
-1 -0 -1 -1 -1 -1 -1 -1 -1 -1 -1 -1 -1 -1 -1 -2 -1 -2 -1 -1 -1 0 -1 0 -0 0 -0 1 1 0 1 1 1 -3 -3 -5 -7 -8 -8 -8 -9 -9 -9 -9 -8 -8 -8 -9 -9 -9 -10 -10 -10 -11
-1 -1 -0 -0 -1 -0 -0 -2 -2 -3 -3 -3 -5 -5 -6 -9 -7 -5 -2 -3 -3 -4 -3 -1 0 -0 -1 -1 0 0 0 -2 -6 -5 -7 -8 -9 -9 -9 -9 -10 -10 -10 -10 -10 -10 -10 -10 -10 -10 -11 -11 -11 -10
-3 -4 -4 -4 -1 -1 -2 -2 -3 -4 -8 -10 -9 -9 -9 -9 -7 -7 -7 -7 -5 -5 -4 -1 -2 -2 -4 -2 -3 -3 -5 -6 -6 -7 -8 -9 -9 -9 -10 -10 -10 -11 -11 -11 -11 -11 -11 -11 -11 -11 -11 -11 -10 -11
-4 -3 -3 -7 -9 -8 -7 -6 -6 -5 -10 -10 -10 -8 -9 -9 -9 -8 -8 -7 -6 -5 -2 -4 -6 -6 -7 -7 -6 -7 -7 -8 -8 -9 -10 -10 -10 -10 -10 -11 -11 -11 -11 -12 -11 -11 -11 -11 -11 -11 -11 -11 -11 -11
-3 -5 -6 -7 -6 -7 -10 -11 -10 -11 -11 -11 -11 -10 -10 -10 -10 -10 -9 -8 -6 -4 -5 -7 -7 -8 -8 -9 -9 -8 -8 -9 -10 -10 -10 -11 -11 -11 -11 -11 -11 -11 -11 -11 -11 -11 -11 -11 -11 -12 -12 -12 -12 -12
-3 -7 -8 -10 -12 -9 -8 -11 -12 -11 -11 -11 -10 -10 -10 -10 -10 -10 -9 -8 -6 -7 -7 -7 -7 -6 -9 -10 -10 -11 -10 -11 -12 -11 -11 -11 -11 -11 -11 -11 -11 -11 -11 -11 -12 -11 -12 -12 -12 -11 -12 -12 -12 -13
-4 -7 -7 -6 -8 -11 -13 -13 -12 -12 -10 -11 -11 -10 -10 -10 -10 -10 -9 -8 -6 -7 -8 -8 -10 -10 -9 -9 -10 -11 -11 -12 -12 -12 -12 -12 -11 -11 -11 -11 -11 -11 -11 -12 -12 -12 -12 -12 -12 -13 -13 -14 -14 -15
-3 -4 -6 -7 -11 -12 -12 -12 -13 -11 -10 -11 -11 -11 -10 -10 -10 -9 -9 -9 -10 -10 -10 -11 -11 -10 -10 -11 -11 -11 -12 -12 -13 -13 -13 -12 -12 -11 -12 -12 -12 -12 -12 -12 -12 -12 -13 -14 -14 -15 -16 -18 -19 -19
-5 -7 -8 -10 -11 -11 -9 -11 -13 -11 -10 -11 -11 -10 -10 -11 -11 -11 -11 -11 -11 -11 -12 -12 -12 -12 -11 -11 -12 -12 -12 -12 -13 -13 -13 -13 -12 -12 -12 -12 -12 -12 -12 -13 -14 -15 -16 -17 -17 -18 -19 -20 -21 -21
-7 -8 -9 -11 -9 -8 -8 -9 -10 -11 -10 -10 -10 -10 -10 -11 -12 -12 -13 -13 -13 -12 -13 -12 -12 -12 -11 -11 -11 -11 -12 -11 -11 -12 -13 -13 -13 -13 -13 -13 -15 -17 -18 -19 -21 -21 -22 -22 -21 -21 -23 -25 -25 -24
-8 -10 -10 -11 -10 -10 -10 -9 -9 -9 -9 -9 -9 -11 -12 -12 -13 -14 -15 -14 -13 -13 -13 -12 -12 -11 -12 -12 -11 -11 -12 -12 -12 -12 -13 -13 -14 -17 -20 -22 -23 -24 -24 -23 -22 -22 -21 -20 -20 -21 -23 -25 -24 -25
-11 -11 -10 -9 -8 -7 -5 -6 -6 -7 -8 -8 -11 -13 -13 -14 -14 -15 -13 -13 -13 -13 -12 -12 -12 -12 -12 -12 -12 -12 -12 -12 -13 -14 -17 -19 -22 -22 -23 -23 -23 -24 -24 -23 -23 -23 -22 -21 -21 -21 -22 -23 -23 -24
-10 -9 -8 -7 -8 -8 -7 -9 -9 -10 -10 -10 -10 -12 -13 -14 -15 -14 -13 -13 -13 -13 -13 -12 -12 -13 -13 -13 -14 -15 -16 -16 -19 -21 -20 -21 -22 -22 -22 -22 -23 -23 -23 -23 -23 -23 -24 -24 -24 -24 -24 -25 -26 -26
-10 -9 -9 -11 -9 -11 -11 -13 -13 -12 -12 -13 -12 -13 -14 -14 -14 -14 -14 -13 -13 -13 -13 -13 -13 -13 -15 -16 -16 -16 -17 -17 -17 -18 -19 -19 -19 -21 -21 -22 -23 -23 -23 -23 -23 -24 -24 -24 -25 -25 -26 -26 -26 -26
-10 -11 -11 -12 -12 -11 -12 -13 -14 -13 -14 -14 -15 -15 -16 -17 -16 -14 -13 -13 -13 -13 -13 -14 -15 -15 -15 -15 -15 -15 -16 -16 -18 -19 -20 -20 -20 -21 -21 -22 -23 -25 -25 -25 -25 -25 -25 -25 -25 -25 -26 -26 -26 -26
-14 -14 -12 -12 -11 -12 -14 -13 -13 -14 -15 -14 -16 -19 -18 -18 -17 -15 -14 -13 -14 -14 -14 -14 -15 -15 -16 -17 -17 -19 -21 -23 -24 -24 -24 -24 -26 -28 -29 -28 -28 -27 -27 -26 -26 -26 -26 -26 -26 -26 -26 -26 -25 -24
-14 -14 -16 -16 -16 -16 -19 -19 -18 -17 -15 -14 -17 -19 -18 -19 -16 -14 -13 -13 -13 -14 -14 -16 -16 -16 -16 -18 -19 -21 -25 -23 -24 -24 -23 -23 -24 -25 -29 -28 -28 -28 -27 -27 -26 -25 -25 -25 -24 -24 -24 -24 -24 -24
-15 -16 -17 -21 -18 -18 -17 -19 -17 -16 -16 -16 -19 -18 -16 -16 -16 -14 -13 -13 -13 -14 -15 -16 -17 -17 -17 -18 -22 -26 -27 -25 -23 -24 -24 -26 -25 -23 -27 -27 -28 -28 -29 -28 -27 -27 -26 -26 -26 -25 -25 -25 -25 -25
-15 -16 -17 -18 -20 -18 -17 -17 -16 -16 -16 -16 -16 -16 -16 -16 -15 -14 -14 -15 -15 -15 -15 -15 -17 -17 -18 -22 -27 -27 -27 -26 -26 -29 -30 -29 -29 -28 -28 -28 -28 -28 -28 -28 -27 -27 -27 -27 -27 -27 -27 -27 -27 -27
-15 -16 -17 -17 -18 -17 -16 -16 -16 -16 -16 -16 -17 -17 -16 -16 -16 -16 -16 -15 -15 -16 -16 -17 -17 -17 -17 -21 -25 -29 -28 -28 -29 -29 -29 -29 -29 -29 -28 -28 -28 -28 -28 -28 -28 -28 -27 -27 -27 -27 -27 -28 -28 -29
-16 -16 -18 -18 -16 -16 -15 -16 -16 -16 -16 -17 -16 -17 -16 -17 -17 -16 -16 -16 -16 -16 -16 -17 -17 -18 -21 -26 -29 -29 -29 -29 -29 -29 -29 -28 -28 -27 -28 -28 -28 -28 -28 -28 -28 -28 -28 -28 -28 -28 -30 -31 -32 -32
-15 -15 -15 -15 -16 -15 -15 -15 -15 -15 -15 -15 -15 -15 -16 -17 -17 -16 -16 -16 -16 -17 -17 -17 -18 -27 -29 -29 -29 -28 -28 -28 -28 -28 -28 -27 -27 -27 -28 -28 -28 -28 -28 -28 -28 -28 -28 -29 -30 -31 -32 -32 -31 -31

GFSWCAN_850_dewp_066.txt.gz
Dewpoint
-3 -3 -3 -3 -2 -2 -2 -1 -1 -1 -1 -1 -1 -1 -1 -2 -2 -2 -2 -2 -2 -1 -3 -1 -3 -4 -3 -0 1 1 2 2 2 2 0 -0 0 -2 -2 -1 2 1 2 3 2 3 5 1 -1 -1 2 0 2 2
-2 -3 -3 -3 -2 -1 -1 -1 -1 -1 -1 -1 -1 -2 -1 -2 -2 -2 -2 -2 -1 -1 -1 -2 -2 -2 -3 -2 -2 1 -3 -1 0 0 -1 -2 -1 1 -2 -1 -3 1 -1 1 0 0 1 1 0 3 3 3 3 3
-2 -2 -1 -1 -1 -1 -1 -1 -1 -0 -1 -0 -0 -3 -2 -1 -1 -1 -1 -1 -1 -1 -1 -0 -0 0 -1 -0 -2 -2 1 1 -0 -1 -1 -1 0 -2 1 -1 -1 -3 -2 -1 -1 -2 -1 1 3 2 2 3 2 1
-1 -1 -0 -1 -1 -1 -1 -1 -1 -1 -0 -1 -2 -1 -3 -1 -1 -1 -1 -1 -1 -1 0 -2 -2 -1 -0 -0 0 -1 0 1 1 1 0 -0 -1 -2 -2 -2 -2 -4 -2 -3 -3 -4 -0 3 2 2 2 2 1 0
-0 -1 -0 -0 -1 -0 -1 -1 -2 -2 -1 -0 -1 -1 -2 -2 -1 -1 -1 -1 -1 -2 -1 -3 -0 -2 -3 1 1 1 1 2 2 2 2 2 -1 -1 -1 0 -1 -2 -2 0 -0 2 2 2 2 2 2 1 1 -1
-1 -1 -1 -1 -1 -1 -1 -1 -1 -1 -1 -2 -1 -1 -1 -1 -1 -2 -2 -1 -1 -0 -0 1 -1 -1 0 1 1 1 2 2 1 2 3 1 -1 -1 2 0 -1 1 0 0 1 1 1 1 1 1 1 0 -1 -2
-1 -1 -1 -1 -1 -1 -1 -1 -0 -1 -1 -1 -1 -0 -1 -1 -1 -1 -1 -2 -1 -0 -0 2 1 1 0 1 1 1 1 2 1 2 2 -1 -1 0 1 1 0 -1 -2 -2 -1 -1 1 0 0 -1 -1 -1 -1 -1
-1 -1 -0 -1 -1 -1 -1 -1 -0 -1 -1 -1 -1 -0 -1 -1 -1 -1 -2 -1 -1 -0 -0 2 2 1 1 1 1 1 2 2 2 2 2 1 -0 -0 4 -2 -4 -4 -3 -2 -3 -3 -2 -1 -2 -2 -2 -3 -3 -3
-1 -1 -0 -1 -1 -0 -0 -1 -1 -0 -0 -0 -0 -1 -1 -1 -1 -0 -1 -1 -1 -0 0 0 1 2 1 1 1 2 1 2 1 2 3 2 3 2 -4 -5 -5 -5 -5 -4 -5 -4 -4 -3 -4 -4 -4 -5 -6 -7
-1 -1 -0 -0 -0 -0 -0 -0 -1 -1 -1 -1 -1 -1 -1 -1 -2 -1 -1 -1 -1 -0 0 0 1 2 0 1 2 2 1 1 3 1 1 2 -3 -6 -6 -7 -6 -6 -6 -6 -5 -4 -5 -4 -5 -6 -7 -7 -8 -9
-1 -1 -1 -0 -1 -1 -1 -0 -0 -0 -0 -1 -1 -1 -1 -1 -1 -1 -1 -0 -1 -1 -0 -0 0 1 0 0 2 1 1 1 2 2 2 0 -3 -6 -7 -8 -8 -7 -7 -7 -6 -7 -7 -7 -6 -7 -9 -9 -10 -10
-1 -1 -0 -1 -1 -1 -0 -0 -0 -1 -2 -1 -1 -1 -1 -1 -1 -1 -1 -1 -2 -1 -1 -0 0 1 0 1 1 1 3 2 2 -2 2 -1 -7 -9 -9 -9 -8 -8 -8 -8 -9 -9 -9 -9 -9 -10 -10 -11 -11 -11
-0 -0 -0 -1 -1 -1 -0 -1 -1 -2 -3 -3 -3 -5 -6 -7 -3 -1 -1 -1 -1 -3 -2 -1 1 -0 -1 -0 0 2 2 0 -3 -1 -3 -6 -9 -9 -9 -9 -9 -9 -9 -10 -10 -10 -11 -11 -11 -11 -12 -12 -11 -11
-3 -0 -0 -1 -1 -1 -2 -3 -4 -5 -8 -9 -7 -7 -6 -6 -6 -5 -4 -4 -4 -3 -3 -1 -1 0 -1 -1 -2 -1 -4 -4 -1 -2 -5 -8 -9 -9 -9 -9 -10 -11 -11 -11 -12 -12 -12 -12 -12 -12 -12 -11 -11 -11
-4 -7 -4 -1 -1 -2 -2 -3 -4 -5 -10 -8 -9 -6 -7 -8 -7 -7 -6 -5 -5 -5 -2 -1 -3 -4 -3 -3 -4 -4 -3 -3 -5 -5 -8 -9 -9 -10 -10 -10 -11 -11 -12 -12 -12 -12 -12 -12 -12 -12 -12 -12 -12 -12
-5 -6 -7 -7 -8 -5 -5 -6 -7 -10 -10 -9 -10 -7 -8 -7 -7 -7 -6 -5 -6 -4 -4 -4 -3 -4 -5 -6 -5 -5 -4 -4 -7 -9 -10 -10 -10 -11 -11 -11 -11 -12 -12 -12 -12 -12 -12 -12 -12 -12 -12 -12 -12 -12
-5 -7 -8 -12 -9 -9 -11 -12 -12 -10 -10 -10 -9 -9 -9 -8 -8 -8 -7 -6 -6 -4 -3 -5 -4 -5 -9 -7 -7 -9 -7 -8 -10 -10 -10 -10 -11 -11 -11 -11 -11 -11 -11 -12 -12 -12 -12 -12 -12 -12 -13 -14 -14 -14
-6 -6 -5 -6 -10 -12 -13 -13 -11 -11 -10 -9 -10 -9 -9 -9 -8 -8 -8 -7 -5 -6 -7 -6 -10 -8 -7 -7 -8 -10 -10 -10 -11 -11 -11 -12 -12 -11 -12 -12 -12 -12 -12 -12 -12 -12 -12 -13 -13 -14 -14 -15 -15 -16
-4 -5 -7 -10 -11 -13 -11 -11 -11 -10 -9 -9 -9 -9 -9 -9 -9 -9 -8 -8 -9 -9 -10 -10 -10 -9 -9 -10 -10 -11 -11 -11 -11 -12 -12 -12 -12 -12 -12 -12 -12 -12 -12 -12 -12 -12 -13 -14 -15 -15 -15 -15 -16 -16
-6 -8 -9 -10 -11 -12 -9 -9 -10 -10 -10 -9 -9 -10 -10 -9 -9 -9 -9 -10 -11 -11 -11 -11 -10 -11 -11 -10 -10 -10 -11 -11 -11 -11 -12 -13 -13 -12 -12 -13 -13 -12 -13 -13 -14 -15 -15 -17 -18 -18 -18 -17 -17 -18
-9 -10 -11 -12 -11 -10 -7 -9 -10 -10 -10 -10 -9 -10 -10 -11 -10 -10 -11 -11 -12 -12 -12 -11 -11 -11 -11 -11 -11 -11 -11 -11 -10 -10 -11 -13 -13 -14 -13 -13 -14 -16 -16 -16 -16 -19 -19 -18 -20 -23 -23 -24 -23 -20
-9 -10 -10 -12 -11 -10 -8 -8 -9 -9 -10 -9 -10 -11 -11 -11 -11 -12 -13 -13 -12 -12 -11 -11 -11 -11 -12 -12 -12 -12 -11 -12 -12 -12 -13 -13 -14 -15 -18 -20 -19 -22 -21 -18 -17 -17 -18 -20 -21 -21 -23 -23 -22 -21
-11 -10 -9 -9 -7 -6 -6 -6 -7 -8 -8 -9 -11 -12 -12 -12 -12 -13 -13 -13 -12 -12 -12 -12 -13 -13 -13 -12 -12 -12 -12 -12 -13 -14 -16 -19 -22 -23 -23 -23 -22 -20 -19 -21 -22 -19 -22 -22 -22 -23 -24 -23 -20 -22
-11 -10 -9 -7 -6 -6 -6 -7 -9 -9 -9 -9 -11 -11 -12 -12 -13 -13 -12 -13 -12 -12 -13 -13 -13 -13 -13 -13 -14 -14 -15 -17 -20 -21 -21 -19 -20 -22 -23 -23 -24 -24 -24 -24 -24 -25 -25 -25 -24 -24 -25 -25 -25 -23
-11 -10 -9 -8 -8 -8 -8 -8 -9 -9 -8 -9 -10 -10 -11 -13 -11 -12 -12 -13 -12 -13 -13 -13 -13 -13 -13 -14 -15 -18 -18 -17 -16 -19 -20 -20 -21 -21 -22 -23 -24 -25 -24 -21 -22 -24 -25 -25 -25 -25 -26 -26 -25 -26
-9 -11 -9 -9 -8 -8 -9 -8 -8 -8 -9 -10 -11 -13 -13 -12 -12 -11 -13 -12 -12 -13 -13 -13 -13 -13 -14 -14 -14 -15 -17 -18 -20 -20 -22 -22 -22 -19 -18 -18 -18 -21 -26 -25 -24 -21 -23 -25 -25 -25 -25 -25 -26 -26
-10 -10 -12 -13 -11 -11 -10 -11 -11 -10 -9 -10 -12 -13 -13 -12 -12 -14 -14 -13 -13 -14 -15 -15 -15 -14 -16 -17 -18 -19 -21 -23 -25 -25 -25 -25 -26 -27 -28 -24 -23 -26 -27 -26 -26 -25 -24 -25 -26 -26 -26 -25 -25 -25
-13 -14 -13 -15 -15 -14 -13 -13 -13 -12 -12 -14 -15 -14 -14 -14 -13 -14 -14 -14 -14 -14 -15 -15 -15 -16 -16 -18 -20 -23 -26 -25 -25 -24 -25 -25 -25 -25 -29 -28 -28 -28 -27 -27 -26 -25 -25 -25 -24 -24 -24 -24 -25 -25
-14 -15 -17 -18 -17 -16 -16 -15 -15 -15 -15 -15 -15 -15 -16 -16 -17 -16 -14 -13 -14 -15 -16 -17 -17 -18 -18 -19 -22 -26 -26 -25 -24 -25 -27 -25 -26 -24 -28 -27 -28 -28 -28 -28 -27 -27 -27 -26 -26 -26 -26 -26 -26 -26
-15 -15 -17 -18 -17 -16 -16 -17 -16 -17 -17 -16 -16 -16 -16 -17 -16 -14 -14 -14 -15 -15 -16 -16 -17 -18 -20 -25 -28 -27 -27 -27 -27 -29 -28 -27 -28 -28 -28 -28 -28 -28 -28 -28 -28 -27 -27 -27 -27 -27 -27 -27 -27 -27
-15 -15 -16 -17 -17 -16 -17 -16 -16 -16 -16 -16 -16 -16 -16 -16 -16 -15 -15 -15 -15 -15 -16 -17 -17 -17 -18 -23 -26 -28 -28 -28 -29 -29 -29 -28 -28 -28 -28 -28 -28 -28 -28 -28 -28 -27 -27 -27 -27 -28 -28 -28 -30 -31
-15 -16 -17 -16 -16 -16 -16 -15 -15 -15 -15 -15 -15 -16 -16 -15 -16 -16 -16 -16 -16 -16 -16 -17 -17 -18 -22 -27 -29 -29 -29 -29 -29 -28 -28 -28 -27 -27 -27 -27 -28 -28 -27 -27 -27 -27 -28 -28 -28 -29 -31 -32 -32 -31
-15 -15 -15 -15 -15 -14 -15 -14 -15 -15 -14 -15 -16 -16 -17 -16 -16 -16 -16 -16 -16 -16 -17 -17 -19 -27 -29 -29 -28 -28 -28 -28 -28 -28 -27 -27 -27 -27 -27 -28 -28 -27 -28 -28 -28 -29 -29 -30 -31 -32 -32 -31 -31 -30

GFSWCAN_850_dewp_072.txt.gz
Dewpoint
-5 -4 -5 -5 -4 -4 -3 -3 -2 -3 -3 -3 -2 -1 -2 -3 -5 -6 -6 -3 -3 -2 -4 -5 -4 -2 -1 -2 1 1 2 1 2 1 0 1 1 1 0 -1 0 1 3 4 2 3 4 1 2 4 4 3 1 1
-5 -5 -5 -3 -2 -2 -2 -2 -2 -2 -2 -2 -1 -1 -1 -2 -2 -4 -3 -4 -2 -2 -4 -2 -2 -3 -2 -2 1 1 2 2 -0 1 0 4 3 4 1 1 -2 1 -0 2 -1 1 2 2 2 2 2 1 1 1
-5 -4 -2 -2 -2 -1 -1 -1 -1 -1 -2 -2 -2 -1 -1 -1 -1 -1 -4 -3 -3 -2 -2 -3 -4 -5 -3 -2 -2 1 1 -0 2 3 3 3 4 2 2 1 2 1 0 3 2 4 3 1 1 1 1 1 1 1
-3 -2 -2 -1 -1 -1 -1 -1 -1 -2 -1 -1 -1 -1 -1 -1 -1 -1 -2 -3 -2 -3 -3 -5 -5 -3 -9 -3 -1 -0 1 0 1 2 2 3 3 1 4 1 2 0 -0 -1 4 4 4 2 1 1 1 1 0 0
-2 -1 -1 -1 -1 -1 -1 -1 -1 -0 -1 -1 -1 -1 -1 -1 -1 -1 -1 -2 -2 -5 -3 -4 -4 -5 -2 -3 -1 0 1 1 1 2 2 2 2 2 1 1 4 1 2 4 6 1 3 1 0 0 -0 -0 -0 -1
-1 -1 -1 -2 -2 -2 -2 -1 -2 -1 -1 -1 -0 -1 -0 -1 -1 -1 -2 -2 -2 -2 -2 1 -0 -3 -2 -2 -2 -1 1 1 2 2 2 1 -0 2 4 4 2 -1 -1 -1 -1 -1 1 1 -1 -1 -1 -1 -2 -2
-1 -1 -1 -1 -1 -1 -1 -0 -2 -1 -0 -1 -0 -1 -0 -1 -1 -2 -1 -2 -4 -2 -1 0 -1 -1 -1 -1 -1 -0 0 1 2 2 2 1 1 0 3 4 -0 -1 -2 -3 -3 -1 -1 -2 -2 -2 -2 -2 -3 -4
-1 -1 -1 -1 -0 -0 0 -0 -1 -1 -0 -1 -0 -0 -1 -1 -1 -1 -1 -2 -3 -1 -1 1 -1 1 -1 0 1 1 2 1 1 2 1 1 -0 1 1 -3 -4 -4 -3 -4 -4 -3 -2 -3 -4 -4 -4 -4 -4 -4
-1 -1 -1 -0 -0 -0 -0 -0 -1 -0 -1 -0 -0 -1 -2 -1 -1 -1 -1 -1 -1 -1 0 1 1 3 0 0 2 2 1 2 1 2 2 1 2 -1 -3 -4 -5 -5 -5 -5 -4 -4 -4 -4 -4 -5 -5 -5 -5 -6
-1 -1 -0 -0 0 0 -0 -0 -0 -0 -0 -1 -1 -2 -1 -1 -1 -1 -0 -1 -1 -0 1 2 1 2 0 1 2 1 1 2 3 2 1 1 -2 -6 -6 -7 -7 -6 -6 -6 -6 -5 -6 -5 -4 -5 -6 -6 -7 -8
-1 -1 -1 -0 -0 -0 -0 -0 -0 -1 -0 -1 -1 -1 -1 -1 -0 -1 -1 -0 -0 1 -1 -0 2 1 1 2 2 0 2 2 2 2 2 1 -2 -6 -7 -8 -8 -7 -7 -7 -7 -6 -7 -6 -6 -7 -8 -9 -10 -10
-1 -1 -1 -0 -1 -1 -0 -0 -1 -1 -1 -1 -1 -1 -1 -1 -0 1 0 1 0 -1 0 1 1 1 2 2 2 1 2 3 3 1 1 -1 -5 -7 -8 -8 -8 -8 -8 -8 -8 -8 -9 -9 -9 -9 -10 -11 -11 -12
-1 -1 -1 -1 -1 -1 -1 -1 -0 -1 -1 -2 -2 -1 -0 -1 1 1 -1 -1 1 0 0 1 2 1 1 1 2 2 2 2 -1 2 -1 -4 -7 -8 -8 -8 -9 -9 -9 -10 -10 -10 -11 -11 -11 -12 -12 -12 -12 -12
-2 -1 -1 -1 -1 -1 -1 -1 -1 -1 -1 -2 -3 -3 -1 -2 -2 -2 -1 -1 -2 -1 1 1 1 1 -0 0 1 -0 -0 -0 2 1 -3 -6 -8 -8 -9 -9 -10 -10 -11 -11 -12 -12 -12 -12 -13 -12 -12 -12 -12 -12
-2 -1 -1 -1 -2 -2 -2 -1 -2 -5 -5 -6 -6 -4 -5 -5 -5 -4 -3 -2 -3 -1 -0 0 -0 -1 -1 -0 -1 -1 -1 -1 -2 -3 -5 -8 -8 -9 -9 -10 -11 -11 -11 -11 -12 -12 -12 -12 -12 -12 -12 -12 -12 -13
-2 -2 -2 -3 -2 -3 -2 -2 -4 -8 -7 -7 -6 -4 -4 -3 -3 -3 -3 -3 -3 -2 0 -1 -1 -1 -1 -1 -1 -1 1 -1 -4 -7 -8 -9 -9 -10 -10 -10 -11 -11 -11 -12 -12 -12 -12 -12 -12 -12 -12 -13 -13 -13
-1 -2 -4 -8 -6 -3 -8 -3 -6 -7 -7 -7 -6 -5 -4 -5 -5 -5 -4 -4 -3 -2 1 0 -1 -1 -4 -3 -4 -6 -4 -6 -7 -7 -8 -9 -10 -10 -11 -11 -11 -11 -11 -11 -12 -12 -12 -12 -12 -13 -13 -14 -14 -15
-5 -4 -1 -1 -1 -8 -6 -6 -7 -8 -7 -6 -6 -6 -6 -6 -5 -5 -5 -4 -2 -4 -5 -4 -5 -3 -3 -3 -5 -7 -8 -8 -9 -9 -9 -10 -10 -10 -10 -11 -11 -11 -11 -11 -12 -12 -12 -11 -12 -12 -13 -14 -14 -14
-4 -8 -9 -3 -6 -9 -8 -7 -8 -8 -6 -6 -6 -6 -6 -6 -7 -6 -6 -5 -7 -6 -6 -8 -7 -6 -6 -7 -8 -8 -9 -9 -9 -10 -10 -11 -11 -11 -11 -11 -11 -12 -12 -11 -12 -12 -13 -13 -13 -13 -14 -14 -14 -14
-6 -9 -10 -7 -7 -7 -7 -7 -7 -7 -6 -7 -6 -7 -7 -6 -6 -6 -8 -9 -9 -9 -9 -8 -7 -7 -7 -7 -8 -8 -9 -9 -10 -10 -10 -11 -11 -11 -10 -11 -11 -12 -12 -12 -12 -13 -14 -14 -14 -15 -15 -14 -14 -15
-8 -8 -6 -5 -6 -6 -7 -7 -8 -8 -7 -6 -6 -7 -6 -7 -7 -8 -9 -10 -10 -9 -9 -8 -8 -8 -9 -8 -8 -8 -8 -8 -7 -9 -10 -11 -11 -11 -11 -12 -12 -12 -12 -12 -13 -14 -14 -14 -15 -15 -15 -16 -17 -17
-6 -5 -5 -6 -7 -7 -7 -7 -7 -7 -7 -7 -7 -7 -7 -7 -8 -10 -10 -11 -10 -8 -9 -10 -9 -9 -9 -10 -10 -10 -10 -11 -11 -11 -11 -11 -11 -11 -12 -12 -13 -13 -13 -14 -14 -14 -14 -15 -16 -16 -16 -17 -17 -17
-6 -4 -4 -5 -6 -6 -6 -4 -6 -5 -6 -8 -8 -8 -7 -9 -10 -10 -11 -11 -10 -10 -10 -10 -10 -11 -11 -11 -11 -11 -11 -11 -11 -11 -12 -12 -13 -13 -13 -14 -14 -14 -14 -15 -16 -15 -16 -19 -18 -18 -18 -17 -17 -17
-11 -10 -4 -4 -6 -6 -5 -7 -8 -8 -8 -8 -9 -8 -8 -9 -10 -11 -10 -10 -10 -10 -11 -11 -11 -11 -11 -11 -12 -12 -12 -12 -12 -12 -13 -14 -14 -15 -15 -15 -15 -16 -16 -16 -16 -16 -17 -17 -20 -17 -18 -18 -17 -20
-8 -9 -5 -5 -6 -6 -7 -7 -7 -7 -7 -8 -8 -8 -8 -8 -8 -9 -10 -10 -9 -10 -10 -10 -9 -9 -10 -11 -12 -13 -13 -13 -13 -13 -14 -14 -14 -15 -15 -16 -16 -18 -18 -16 -16 -16 -17 -19 -18 -18 -18 -18 -18 -19
-7 -9 -7 -6 -6 -7 -7 -6 -6 -7 -7 -8 -9 -9 -8 -8 -8 -8 -10 -10 -10 -10 -10 -10 -10 -11 -12 -12 -12 -13 -14 -14 -13 -14 -15 -15 -15 -14 -14 -15 -15 -16 -17 -19 -18 -17 -17 -18 -18 -19 -19 -19 -19 -19
-7 -8 -10 -10 -8 -8 -7 -7 -8 -8 -8 -8 -8 -8 -8 -9 -9 -11 -9 -10 -10 -10 -10 -10 -10 -11 -12 -13 -13 -15 -19 -20 -16 -18 -23 -26 -26 -26 -21 -17 -16 -17 -20 -23 -19 -19 -19 -19 -19 -19 -19 -19 -19 -19
-11 -10 -10 -10 -10 -10 -9 -9 -9 -9 -10 -11 -11 -10 -10 -10 -10 -10 -11 -11 -12 -12 -12 -12 -12 -12 -13 -14 -15 -21 -27 -27 -25 -22 -19 -17 -17 -23 -25 -28 -28 -29 -28 -25 -26 -26 -20 -20 -20 -20 -20 -20 -20 -20
-11 -12 -14 -13 -13 -13 -13 -11 -11 -13 -12 -10 -11 -12 -14 -13 -12 -12 -13 -13 -13 -13 -14 -14 -14 -15 -16 -15 -15 -15 -15 -17 -15 -19 -17 -15 -16 -17 -19 -25 -22 -24 -24 -21 -20 -20 -21 -24 -23 -22 -24 -24 -22 -21
-11 -12 -14 -14 -14 -13 -13 -12 -12 -13 -13 -13 -14 -14 -14 -13 -14 -14 -13 -13 -13 -13 -14 -14 -14 -14 -15 -15 -20 -24 -28 -28 -28 -24 -16 -16 -17 -22 -24 -22 -24 -24 -26 -22 -22 -21 -21 -21 -22 -21 -21 -21 -21 -21
-12 -12 -14 -14 -14 -13 -13 -12 -12 -12 -12 -13 -14 -15 -15 -15 -15 -14 -14 -14 -14 -15 -15 -15 -15 -15 -16 -15 -15 -16 -16 -24 -29 -30 -29 -28 -27 -25 -27 -27 -28 -28 -27 -26 -26 -24 -24 -27 -24 -22 -21 -22 -26 -28
-12 -13 -14 -14 -13 -12 -12 -11 -12 -12 -12 -13 -13 -13 -12 -12 -13 -15 -15 -15 -14 -14 -14 -15 -15 -17 -23 -28 -29 -29 -29 -30 -29 -29 -28 -28 -28 -28 -28 -28 -28 -28 -27 -28 -27 -26 -27 -29 -29 -29 -29 -28 -29 -30
-12 -13 -14 -14 -14 -13 -12 -11 -13 -11 -12 -12 -13 -12 -12 -12 -13 -16 -15 -15 -14 -15 -15 -16 -17 -24 -30 -30 -29 -29 -29 -28 -28 -28 -29 -29 -29 -29 -29 -28 -29 -29 -30 -30 -30 -29 -29 -28 -28 -28 -27 -27 -27 -26

GFSWCAN_850_dewp_075.txt.gz
Dewpoint
-6 -8 -6 -5 -5 -5 -4 -4 -3 -3 -3 -3 -3 -3 -2 -2 -3 -3 -5 -5 -4 -2 -3 -4 -4 -3 -3 -2 1 1 1 2 -0 -0 0 -0 1 1 3 4 1 1 4 4 3 4 4 4 5 7 6 4 2 2
-6 -6 -6 -5 -4 -3 -3 -3 -2 -2 -2 -3 -3 -3 -2 -2 -2 -3 -4 -6 -4 -2 -3 -3 -3 -4 -4 -3 -1 -0 1 1 0 0 0 2 3 3 2 5 3 3 1 3 1 2 4 4 5 2 1 1 1 1
-6 -5 -5 -5 -3 -2 -2 -1 -1 -1 -1 -1 -2 -2 -2 -1 -1 -2 -3 -3 -4 -3 -3 -3 -6 -8 -7 -7 -4 0 1 1 1 2 2 2 4 3 3 3 5 3 -1 2 2 4 3 2 1 1 1 1 0 -0
-5 -6 -5 -3 -2 -1 -2 -2 -1 -1 -1 -1 -1 -2 -2 -1 -1 -2 -2 -3 -3 -4 -4 -5 -7 -7 -8 -8 -8 -2 -1 0 1 2 1 2 3 3 4 4 4 3 3 4 3 2 2 2 0 0 -0 -0 -1 -1
-5 -4 -2 -2 -1 -1 -1 -1 -1 -1 -1 -1 -1 -1 -1 -1 -1 -1 -1 -2 -3 -5 -2 -2 -5 -7 -8 -5 -4 -5 -1 1 1 1 2 3 2 3 3 3 2 1 1 3 4 2 1 1 -0 -1 -1 -1 -2 -2
-3 -2 -2 -1 -1 -1 -1 -1 -3 -3 -2 -0 -1 -1 -1 -1 -1 -1 -2 -2 -3 -2 -3 -2 -5 -6 -4 -2 -2 -4 -0 1 0 2 2 1 1 2 3 3 -0 -1 -2 -1 1 0 -1 -1 -2 -2 -2 -3 -3 -4
-2 -1 -1 -2 -2 -1 -1 -1 -1 -1 -3 -2 -1 -1 -1 -1 -1 -1 -2 -3 -2 -2 -2 -1 -1 -2 -4 -2 -2 -2 -1 1 1 1 2 2 2 3 2 1 -2 -2 -2 -4 -2 -1 -2 -3 -3 -3 -2 -3 -4 -5
-1 -1 -2 -2 -2 -1 -1 -1 0 -1 -2 -2 -1 -0 -0 -1 -1 -1 -1 -3 -1 -2 -3 -1 -1 1 -1 -0 1 -0 1 1 1 2 1 2 2 0 -2 -3 -4 -4 -4 -4 -4 -3 -3 -4 -5 -5 -4 -4 -5 -6
-1 -2 -2 -1 -1 -1 -0 -1 -0 -1 -1 -0 -0 -0 -1 -1 -2 -1 -1 -1 -2 -2 -1 -1 -1 1 -0 1 1 1 1 1 1 1 2 2 -1 -3 -3 -4 -5 -6 -6 -6 -5 -5 -4 -4 -5 -6 -6 -6 -7 -8
-1 -1 -1 -1 -0 -0 -0 -0 -0 -1 -0 -0 -0 -1 -1 -1 -1 -1 -1 -1 -1 -1 -0 0 0 0 1 1 1 1 1 1 2 1 1 -2 -3 -5 -6 -6 -7 -7 -7 -7 -6 -6 -6 -5 -7 -8 -8 -8 -9 -9
-1 -2 -1 -1 -0 -0 -0 -0 -1 -0 -0 -1 -1 -1 -1 -1 -1 -1 -2 -1 -1 -0 -1 -0 0 1 1 1 1 1 1 1 2 2 2 -0 -3 -5 -7 -8 -8 -8 -8 -7 -8 -8 -7 -7 -8 -9 -10 -11 -11 -11
-1 -1 -1 -0 -0 -0 -0 -0 -0 -1 -1 -0 -1 -1 -1 -1 -1 -0 0 -0 -1 -1 -0 0 1 1 1 1 1 1 2 1 3 1 2 -3 -5 -7 -8 -9 -9 -9 -9 -10 -10 -10 -10 -10 -10 -11 -11 -12 -12 -12
-1 -1 -1 -1 -1 -0 -0 -1 -1 -1 -1 -1 -2 -1 -1 -1 -1 -2 -0 -2 0 0 1 1 1 1 1 1 1 1 1 1 -0 0 -4 -5 -7 -7 -8 -9 -10 -10 -11 -11 -11 -11 -11 -12 -12 -12 -12 -12 -12 -12
-1 -1 -1 -1 -1 -1 -1 -1 -1 -2 -3 -3 -4 -6 -2 -2 -3 -2 -2 -1 -1 -0 0 -0 1 0 -0 -1 0 -0 -1 -0 0 -2 -5 -7 -8 -9 -10 -10 -11 -11 -12 -12 -12 -12 -12 -12 -12 -12 -12 -12 -12 -12
-1 -1 -1 -1 -1 -1 -1 -2 -3 -4 -5 -6 -6 -4 -5 -5 -4 -4 -3 -3 -2 -1 0 -1 -1 -2 -1 -2 -2 -2 -1 0 -3 -7 -8 -8 -8 -10 -11 -11 -11 -11 -12 -12 -12 -12 -12 -12 -12 -12 -12 -12 -12 -13
-1 -2 -2 -1 -1 -1 -1 -2 -4 -9 -7 -7 -6 -4 -4 -4 -4 -3 -3 -3 -2 -1 0 -1 -2 -2 -2 -1 -2 -3 -1 -5 -8 -9 -9 -10 -10 -11 -10 -11 -11 -11 -12 -12 -12 -12 -12 -12 -12 -13 -13 -13 -13 -14
-1 -4 -8 -8 -6 -4 -2 -2 -6 -8 -7 -7 -6 -6 -4 -5 -4 -4 -4 -4 -2 -1 0 -2 -3 -2 -3 -4 -5 -6 -7 -8 -8 -8 -9 -11 -11 -11 -11 -11 -11 -12 -12 -12 -12 -12 -13 -13 -13 -14 -15 -16 -17 -18
-2 -3 -1 -2 -3 -3 -6 -6 -8 -8 -6 -6 -6 -6 -6 -5 -5 -5 -5 -4 -2 -4 -5 -4 -6 -7 -7 -5 -7 -8 -8 -8 -10 -10 -11 -11 -11 -11 -11 -11 -11 -12 -12 -12 -12 -11 -12 -12 -12 -13 -14 -14 -14 -14
-3 -1 -1 -1 -6 -8 -7 -7 -9 -7 -6 -7 -6 -6 -6 -6 -6 -6 -5 -6 -7 -7 -8 -9 -7 -7 -7 -7 -8 -8 -9 -9 -9 -10 -10 -10 -11 -11 -12 -12 -11 -11 -11 -11 -12 -13 -12 -12 -13 -13 -14 -13 -13 -14
-5 -6 -5 -2 -7 -7 -7 -7 -7 -7 -5 -6 -6 -6 -6 -6 -7 -7 -7 -8 -10 -10 -9 -8 -8 -7 -7 -8 -9 -9 -10 -11 -11 -11 -11 -11 -11 -11 -11 -11 -12 -12 -13 -13 -13 -13 -13 -14 -15 -16 -15 -14 -14 -15
-8 -6 -5 -6 -7 -7 -7 -7 -7 -6 -6 -6 -6 -6 -7 -8 -7 -9 -10 -10 -11 -8 -8 -8 -8 -8 -8 -9 -9 -9 -10 -11 -11 -12 -11 -11 -12 -13 -13 -13 -12 -11 -12 -12 -13 -14 -15 -15 -15 -16 -16 -16 -17 -18
-6 -5 -6 -6 -6 -6 -7 -7 -6 -7 -6 -6 -5 -6 -6 -7 -8 -10 -11 -10 -9 -9 -9 -9 -9 -9 -10 -10 -10 -10 -9 -9 -10 -11 -12 -12 -11 -11 -12 -12 -12 -14 -14 -14 -14 -14 -15 -15 -16 -16 -16 -17 -18 -18
-4 -4 -5 -6 -7 -7 -5 -5 -5 -5 -6 -7 -7 -6 -6 -9 -10 -11 -10 -10 -10 -10 -10 -10 -11 -11 -11 -11 -11 -11 -11 -12 -12 -12 -12 -12 -13 -14 -14 -14 -14 -14 -14 -15 -17 -16 -16 -18 -19 -19 -19 -17 -17 -17
-8 -8 -4 -5 -7 -5 -5 -7 -8 -7 -6 -7 -7 -7 -7 -9 -11 -10 -9 -10 -10 -11 -12 -12 -12 -12 -12 -12 -12 -12 -12 -13 -13 -13 -13 -14 -15 -15 -16 -17 -19 -19 -17 -18 -18 -18 -18 -19 -19 -17 -18 -19 -18 -18
-9 -8 -6 -7 -6 -8 -8 -7 -6 -6 -8 -8 -8 -8 -9 -8 -8 -9 -10 -10 -11 -11 -11 -11 -11 -10 -12 -13 -13 -13 -12 -12 -13 -14 -14 -14 -14 -15 -15 -15 -16 -16 -18 -18 -16 -17 -17 -18 -19 -19 -19 -19 -19 -19
-9 -9 -8 -6 -6 -7 -7 -8 -8 -7 -8 -8 -9 -9 -8 -8 -10 -9 -10 -10 -10 -11 -10 -10 -11 -12 -12 -13 -13 -14 -13 -13 -13 -16 -19 -19 -16 -15 -15 -15 -15 -16 -17 -19 -22 -18 -17 -18 -18 -19 -19 -19 -19 -19
-9 -9 -9 -8 -7 -6 -7 -7 -8 -8 -9 -9 -9 -9 -11 -12 -12 -9 -9 -11 -12 -11 -10 -10 -10 -12 -12 -12 -13 -15 -17 -15 -14 -16 -27 -27 -28 -28 -23 -18 -17 -17 -20 -25 -26 -24 -21 -19 -19 -19 -19 -19 -20 -20
-10 -9 -11 -9 -11 -11 -10 -10 -10 -9 -11 -10 -11 -13 -12 -13 -11 -10 -11 -10 -11 -11 -11 -11 -11 -12 -13 -15 -18 -25 -27 -25 -25 -21 -19 -18 -18 -20 -22 -27 -28 -28 -28 -25 -24 -24 -24 -25 -24 -23 -22 -21 -20 -20
-11 -12 -14 -15 -13 -13 -12 -12 -12 -12 -12 -10 -14 -14 -13 -12 -12 -12 -11 -11 -12 -12 -12 -13 -13 -14 -16 -17 -18 -19 -19 -16 -16 -19 -16 -16 -16 -17 -19 -24 -26 -27 -25 -25 -24 -22 -22 -23 -23 -23 -22 -22 -22 -21
-11 -13 -14 -14 -15 -14 -12 -12 -13 -13 -13 -13 -13 -13 -13 -13 -13 -13 -13 -13 -14 -14 -14 -15 -16 -16 -17 -19 -23 -26 -28 -26 -26 -23 -18 -17 -17 -20 -25 -25 -27 -27 -28 -28 -27 -26 -26 -24 -25 -22 -21 -21 -21 -22
-11 -13 -14 -14 -13 -12 -12 -13 -13 -13 -13 -14 -15 -15 -15 -14 -13 -13 -13 -13 -14 -14 -14 -14 -14 -15 -16 -16 -19 -21 -21 -28 -30 -30 -29 -29 -28 -28 -28 -28 -28 -29 -28 -28 -28 -28 -28 -28 -29 -29 -28 -27 -27 -28
-12 -14 -14 -14 -12 -12 -11 -13 -13 -13 -13 -14 -15 -15 -14 -14 -14 -15 -14 -14 -14 -14 -15 -15 -16 -16 -17 -21 -24 -28 -30 -30 -29 -29 -29 -29 -29 -29 -29 -29 -29 -29 -29 -30 -30 -30 -29 -28 -28 -27 -27 -27 -27 -26
-13 -14 -14 -14 -13 -13 -11 -11 -12 -11 -11 -12 -12 -12 -13 -13 -15 -15 -15 -14 -14 -15 -15 -15 -16 -22 -30 -30 -30 -29 -29 -29 -29 -29 -30 -30 -29 -29 -29 -30 -30 -30 -29 -28 -27 -27 -27 -27 -27 -27 -27 -27 -26 -26

GFSWCAN_850_dewp_081.txt.gz
Dewpoint
-5 -4 -7 -6 -5 -6 -7 -8 -6 -6 -5 -4 -4 -4 -4 -3 -2 -2 -3 -3 -5 -4 -5 -4 -4 -5 -4 -3 -4 -4 -3 -2 -0 0 0 -0 -0 -0 0 -1 0 1 2 2 2 3 2 4 4 5 4 4 3 3
-4 -6 -8 -6 -8 -8 -7 -6 -5 -4 -4 -3 -3 -4 -3 -3 -3 -2 -2 -3 -4 -4 -5 -4 -5 -4 -3 -5 -4 -3 -2 -1 -1 0 -1 -1 1 0 1 2 2 3 1 2 1 2 3 4 4 3 2 2 2 2
-5 -6 -8 -8 -8 -6 -5 -5 -5 -4 -2 -2 -3 -3 -3 -3 -3 -2 -3 -3 -3 -3 -4 -4 -6 -10 -9 -7 -6 -2 -1 -1 -1 -1 1 2 1 3 2 3 1 1 1 4 3 2 1 2 0 -0 0 -1 -1 -1
-6 -8 -10 -10 -7 -5 -5 -5 -4 -2 -2 -1 -2 -3 -3 -3 -3 -2 -2 -3 -3 -4 -5 -7 -9 -10 -11 -8 -9 -7 -4 -3 -3 -0 0 1 2 2 3 1 -0 -1 -0 3 3 1 0 -1 -1 -1 -2 -3 -3 -3
-8 -10 -8 -6 -5 -5 -5 -3 -2 -2 -2 -1 -1 -1 -1 -2 -3 -2 -1 -2 -3 -6 -6 -4 -7 -5 -7 -10 -6 -5 -6 -5 -2 -0 -1 1 2 2 0 0 -2 -2 -1 0 2 -1 -1 -2 -3 -3 -3 -4 -5 -5
-11 -7 -5 -5 -6 -5 -4 -3 -2 -2 -1 -1 -1 -1 -1 -1 -2 -2 -1 -2 -2 -4 -4 -5 -7 -9 -9 -7 -6 -4 -5 -4 -2 1 -0 -0 1 2 2 -1 -3 -3 -3 -2 -2 -2 -2 -3 -3 -3 -4 -5 -5 -6
-8 -7 -6 -5 -4 -4 -3 -2 -1 -1 -1 -1 -1 -1 -1 -1 -2 -1 -2 -2 -2 -3 -3 -3 -4 -4 -2 -2 -3 -2 -3 -1 1 -0 1 1 1 -1 -2 -3 -5 -4 -4 -3 -3 -2 -3 -3 -4 -4 -5 -6 -6 -6
-7 -6 -5 -3 -3 -3 -3 -2 -2 -2 -2 -1 -3 -1 -1 -1 -2 -1 -2 -1 -2 -2 -2 -3 -4 -2 -1 -1 -0 -0 0 -1 -0 -0 1 1 -2 -3 -4 -5 -5 -6 -5 -5 -4 -5 -5 -5 -5 -6 -6 -7 -7 -9
-5 -4 -3 -3 -3 -3 -3 -2 -2 -2 -2 -1 -2 -1 -1 -1 -1 -1 -1 -2 -2 -2 -2 -3 -2 -1 -1 0 1 0 -1 0 -0 1 1 -2 -4 -5 -5 -6 -6 -7 -7 -6 -5 -5 -6 -6 -7 -7 -7 -8 -9 -10
-3 -3 -3 -2 -2 -1 -2 -2 -2 -2 -2 -1 -1 -1 -2 -1 -1 -1 -2 -2 -2 -2 -1 -3 -3 -2 -1 -0 0 -0 -1 1 2 1 -2 -4 -6 -6 -7 -7 -8 -8 -8 -8 -7 -7 -7 -8 -9 -10 -10 -10 -10 -10
-2 -3 -1 -1 -1 -1 -1 -1 -1 -2 -1 -1 -1 -1 -2 -1 -1 -2 -2 -2 -2 -2 -3 -2 -2 -1 0 1 -1 0 0 1 1 1 0 -3 -5 -7 -8 -8 -9 -10 -10 -9 -9 -8 -8 -9 -10 -11 -12 -11 -11 -11
-1 -1 -1 -1 -1 -1 -1 -1 -1 -1 -1 -1 -1 -1 -2 -1 -1 -2 -2 -1 -4 -3 -2 -1 -1 -1 -0 -0 -0 0 0 1 2 -0 -3 -7 -7 -8 -9 -10 -10 -10 -11 -11 -11 -11 -11 -11 -11 -11 -11 -11 -11 -11
-1 -2 -2 -1 -1 -0 -1 -1 -1 -1 -1 -2 -1 -1 -1 -1 -1 -2 -1 -1 -2 -1 -1 -0 0 -0 -0 0 0 0 -0 -1 -1 -8 -7 -8 -8 -9 -10 -10 -11 -11 -11 -12 -12 -11 -12 -12 -12 -12 -12 -12 -12 -12
-1 -1 -1 -1 -1 -1 -1 -1 -1 -1 -2 -1 -2 -4 -3 -2 -5 -6 -7 -7 -2 -1 -0 -1 0 -0 -0 -1 -1 -4 -3 -4 -6 -6 -8 -10 -9 -10 -10 -11 -12 -12 -12 -12 -12 -12 -12 -12 -12 -12 -12 -12 -12 -12
-1 -1 -1 -1 -1 -1 -1 -1 -1 -2 -4 -5 -6 -5 -8 -5 -4 -3 -2 -2 -1 -0 0 -0 -1 -1 -3 -3 -3 -2 -3 -5 -6 -8 -12 -9 -10 -11 -11 -12 -12 -12 -12 -12 -12 -12 -12 -12 -12 -12 -13 -13 -13 -13
-1 -1 -2 -2 -2 -1 -1 -1 -2 -8 -7 -7 -6 -5 -5 -5 -5 -3 -3 -3 -1 -0 -2 -3 -3 -4 -3 -4 -4 -5 -3 -5 -10 -14 -10 -10 -11 -11 -12 -12 -12 -12 -12 -12 -12 -12 -13 -13 -13 -14 -15 -17 -19 -19
-1 -2 -2 -2 -1 -2 -3 -4 -8 -8 -7 -7 -7 -6 -6 -5 -5 -5 -4 -3 -1 -0 -2 -5 -6 -4 -5 -7 -7 -8 -10 -13 -11 -10 -10 -11 -11 -12 -12 -12 -12 -12 -13 -13 -13 -14 -14 -14 -14 -14 -15 -15 -15 -16
-2 -2 -2 -1 -1 -3 -3 -6 -10 -8 -7 -7 -8 -7 -7 -6 -5 -5 -6 -2 -2 -5 -6 -6 -8 -10 -10 -8 -11 -13 -10 -10 -10 -10 -10 -11 -12 -12 -12 -12 -12 -12 -13 -12 -12 -12 -13 -13 -13 -14 -14 -14 -14 -15
-2 -2 -1 -1 -1 -2 -5 -9 -9 -7 -6 -6 -6 -6 -7 -7 -8 -8 -9 -6 -7 -9 -10 -10 -11 -12 -13 -11 -11 -10 -10 -10 -10 -10 -11 -11 -12 -12 -12 -12 -12 -12 -12 -12 -12 -13 -13 -13 -13 -14 -14 -14 -14 -15
-2 -2 -3 -4 -6 -8 -7 -7 -8 -7 -7 -6 -6 -7 -7 -7 -7 -9 -10 -10 -10 -10 -10 -11 -12 -9 -9 -9 -10 -10 -11 -11 -11 -11 -11 -11 -11 -12 -12 -12 -12 -12 -12 -12 -13 -14 -14 -14 -14 -15 -16 -17 -15 -15
-3 -3 -3 -4 -6 -9 -8 -8 -6 -7 -7 -7 -7 -8 -8 -9 -9 -9 -10 -11 -11 -9 -11 -10 -10 -9 -10 -10 -10 -11 -11 -12 -12 -12 -12 -11 -11 -12 -13 -13 -12 -13 -13 -13 -13 -13 -14 -14 -15 -15 -16 -17 -18 -19
-4 -4 -5 -7 -8 -7 -7 -7 -7 -7 -6 -7 -6 -7 -8 -8 -11 -11 -12 -11 -10 -10 -10 -9 -9 -9 -10 -10 -11 -12 -11 -12 -12 -12 -12 -12 -12 -12 -12 -13 -13 -12 -13 -13 -14 -15 -15 -16 -16 -18 -18 -17 -18 -18
-4 -5 -7 -8 -7 -8 -7 -6 -6 -6 -8 -6 -6 -8 -10 -10 -12 -12 -10 -11 -10 -10 -9 -9 -9 -10 -11 -11 -11 -12 -11 -12 -12 -12 -12 -13 -13 -13 -13 -13 -13 -14 -14 -15 -16 -17 -19 -19 -20 -19 -19 -19 -18 -18
-5 -6 -7 -7 -6 -6 -5 -7 -7 -6 -6 -7 -8 -9 -10 -10 -11 -12 -12 -11 -11 -10 -9 -10 -10 -10 -10 -9 -10 -10 -10 -11 -12 -12 -11 -12 -13 -14 -15 -18 -19 -20 -20 -19 -19 -19 -18 -18 -19 -19 -19 -18 -18 -19
-8 -8 -7 -9 -7 -9 -10 -10 -10 -10 -11 -11 -11 -11 -10 -9 -13 -13 -13 -11 -11 -10 -10 -10 -11 -11 -11 -12 -12 -12 -12 -12 -13 -15 -14 -14 -15 -17 -17 -17 -17 -17 -18 -18 -18 -19 -18 -18 -18 -18 -19 -19 -20 -19
-11 -8 -9 -9 -8 -10 -10 -10 -11 -11 -12 -12 -12 -8 -8 -14 -14 -13 -12 -11 -11 -11 -11 -11 -11 -11 -12 -13 -13 -14 -14 -13 -14 -15 -15 -15 -15 -15 -15 -15 -15 -16 -16 -17 -19 -25 -27 -22 -19 -18 -18 -19 -19 -20
-12 -13 -8 -9 -8 -7 -9 -9 -9 -11 -12 -11 -12 -13 -15 -15 -15 -13 -11 -12 -12 -12 -12 -12 -13 -13 -13 -13 -13 -13 -13 -14 -15 -17 -20 -23 -23 -23 -19 -16 -15 -16 -18 -21 -26 -28 -27 -26 -25 -24 -23 -22 -21 -21
-11 -12 -12 -12 -13 -12 -15 -16 -16 -14 -14 -11 -13 -16 -16 -16 -14 -11 -11 -12 -12 -12 -12 -11 -10 -12 -14 -14 -14 -14 -15 -14 -15 -16 -26 -24 -21 -23 -24 -27 -28 -28 -28 -28 -27 -27 -26 -25 -24 -24 -25 -25 -24 -24
-13 -14 -15 -17 -15 -13 -13 -16 -15 -13 -13 -12 -18 -18 -13 -13 -13 -11 -11 -11 -11 -11 -11 -11 -12 -12 -13 -13 -13 -16 -17 -18 -22 -24 -23 -21 -21 -21 -23 -28 -28 -28 -28 -28 -28 -28 -27 -26 -26 -26 -26 -25 -24 -24
-13 -16 -15 -15 -18 -16 -14 -14 -13 -13 -13 -14 -14 -14 -14 -14 -13 -11 -10 -10 -11 -11 -11 -12 -12 -12 -13 -16 -19 -23 -24 -23 -22 -23 -24 -23 -21 -24 -28 -29 -29 -29 -29 -29 -29 -29 -29 -28 -28 -29 -29 -29 -28 -28
-15 -15 -14 -14 -15 -15 -14 -14 -14 -14 -14 -14 -15 -15 -15 -14 -14 -13 -12 -11 -11 -11 -12 -12 -13 -15 -17 -18 -22 -27 -28 -29 -30 -30 -30 -30 -29 -29 -30 -30 -29 -29 -29 -30 -30 -29 -29 -28 -28 -27 -27 -27 -27 -27
-15 -15 -15 -16 -14 -14 -14 -15 -15 -14 -14 -14 -14 -14 -15 -16 -15 -15 -14 -13 -13 -13 -13 -14 -16 -17 -21 -23 -23 -23 -25 -30 -30 -29 -29 -30 -30 -30 -30 -30 -30 -30 -29 -28 -28 -28 -28 -27 -26 -26 -25 -24 -24 -24
-14 -14 -14 -13 -13 -13 -13 -14 -15 -15 -15 -14 -14 -13 -15 -16 -16 -15 -14 -14 -14 -14 -15 -15 -16 -17 -22 -27 -29 -30 -29 -29 -29 -30 -30 -30 -30 -30 -29 -29 -28 -28 -28 -28 -27 -27 -26 -26 -25 -24 -23 -23 -22 -22